| time (UTC) | temp F | wind direction | speed MPH | gust MPH | rain 1hr in | rain 24hr in | rain mn in | humidity % | barometer mb |
| 20260510183004 | 89 | 147 | 4.0 | 10.0 | 0.00 | 0.00 | 0.00 | 63 | 1007.0 |
| 20260510182903 | 89 | 147 | 4.0 | 10.0 | 0.00 | 0.00 | 0.00 | 63 | 1007.1 |
| 20260510182802 | 89 | 141 | 5.0 | 10.0 | 0.00 | 0.00 | 0.00 | 63 | 1007.0 |
| 20260510182702 | 89 | 116 | 7.0 | 10.0 | 0.00 | 0.00 | 0.00 | 63 | 1007.1 |
| 20260510182604 | 89 | 106 | 6.0 | 10.0 | 0.00 | 0.00 | 0.00 | 64 | 1007.1 |
| 20260510182504 | 89 | 75 | 4.0 | 10.0 | 0.00 | 0.00 | 0.00 | 64 | 1007.0 |
| 20260510182402 | 89 | 107 | 4.0 | 11.0 | 0.00 | 0.00 | 0.00 | 64 | 1007.1 |
| 20260510182306 | 89 | 135 | 4.0 | 11.0 | 0.00 | 0.00 | 0.00 | 63 | 1007.1 |
| 20260510182201 | 89 | 114 | 4.0 | 12.0 | 0.00 | 0.00 | 0.00 | 63 | 1007.2 |
| 20260510182103 | 89 | 159 | 4.0 | 12.0 | 0.00 | 0.00 | 0.00 | 64 | 1007.2 |
| 20260510182004 | 89 | 134 | 4.0 | 12.0 | 0.00 | 0.00 | 0.00 | 64 | 1007.2 |
| 20260510181903 | 89 | 131 | 4.0 | 12.0 | 0.00 | 0.00 | 0.00 | 64 | 1007.2 |
| 20260510181801 | 89 | 172 | 6.0 | 12.0 | 0.00 | 0.00 | 0.00 | 63 | 1007.2 |
| 20260510181702 | 89 | 147 | 6.0 | 12.0 | 0.00 | 0.00 | 0.00 | 63 | 1007.2 |
| 20260510181603 | 89 | 116 | 7.0 | 12.0 | 0.00 | 0.00 | 0.00 | 64 | 1007.3 |
| 20260510181503 | 89 | 124 | 6.0 | 12.0 | 0.00 | 0.00 | 0.00 | 62 | 1007.3 |
| 20260510181404 | 89 | 104 | 7.0 | 12.0 | 0.00 | 0.00 | 0.00 | 62 | 1007.3 |
| 20260510181302 | 89 | 110 | 9.0 | 12.0 | 0.00 | 0.00 | 0.00 | 63 | 1007.3 |
| 20260510181203 | 89 | 109 | 6.0 | 12.0 | 0.00 | 0.00 | 0.00 | 63 | 1007.4 |
| 20260510181104 | 89 | 124 | 4.0 | 9.0 | 0.00 | 0.00 | 0.00 | 64 | 1007.4 |
| 20260510181004 | 89 | 140 | 4.0 | 9.0 | 0.00 | 0.00 | 0.00 | 65 | 1007.4 |
| 20260510180902 | 89 | 137 | 4.0 | 9.0 | 0.00 | 0.00 | 0.00 | 65 | 1007.4 |
| 20260510180802 | 89 | 103 | 4.0 | 9.0 | 0.00 | 0.00 | 0.00 | 65 | 1007.4 |
| 20260510180702 | 89 | 147 | 4.0 | 9.0 | 0.00 | 0.00 | 0.00 | 66 | 1007.4 |
| 20260510180604 | 89 | 125 | 4.0 | 9.0 | 0.00 | 0.00 | 0.00 | 66 | 1007.4 |
| 20260510180504 | 89 | 190 | 5.0 | 12.0 | 0.00 | 0.00 | 0.00 | 66 | 1007.4 |
| 20260510180403 | 88 | 123 | 5.0 | 12.0 | 0.00 | 0.00 | 0.00 | 67 | 1007.4 |
| 20260510180302 | 88 | 159 | 4.0 | 12.0 | 0.00 | 0.00 | 0.00 | 67 | 1007.3 |
| 20260510180203 | 88 | 65 | 2.0 | 12.0 | 0.00 | 0.00 | 0.00 | 66 | 1007.3 |
| 20260510180003 | 88 | 65 | 3.0 | 14.0 | 0.00 | 0.00 | 0.00 | 65 | 1007.3 |
| 20260510175904 | 88 | 75 | 3.0 | 14.0 | 0.00 | 0.00 | 0.00 | 65 | 1007.4 |
| 20260510175804 | 88 | 110 | 3.0 | 14.0 | 0.00 | 0.00 | 0.00 | 65 | 1007.4 |
| 20260510175703 | 89 | 118 | 5.0 | 14.0 | 0.00 | 0.00 | 0.00 | 67 | 1007.4 |
| 20260510175602 | 88 | 118 | 5.0 | 14.0 | 0.00 | 0.00 | 0.00 | 67 | 1007.4 |
| 20260510175504 | 89 | 117 | 3.0 | 14.0 | 0.00 | 0.00 | 0.00 | 67 | 1007.4 |
| 20260510175403 | 88 | 142 | 4.0 | 14.0 | 0.00 | 0.00 | 0.00 | 67 | 1007.4 |
| 20260510175306 | 88 | 134 | 5.0 | 14.0 | 0.00 | 0.00 | 0.00 | 67 | 1007.4 |
| 20260510175203 | 88 | 111 | 6.0 | 14.0 | 0.00 | 0.00 | 0.00 | 68 | 1007.5 |
| 20260510175102 | 88 | 176 | 7.0 | 14.0 | 0.00 | 0.00 | 0.00 | 65 | 1007.4 |
| 20260510175003 | 88 | 92 | 4.0 | 13.0 | 0.00 | 0.00 | 0.00 | 65 | 1007.6 |
| 20260510174904 | 88 | 127 | 5.0 | 13.0 | 0.00 | 0.00 | 0.00 | 65 | 1007.5 |
| 20260510174802 | 88 | 71 | 6.0 | 13.0 | 0.00 | 0.00 | 0.00 | 65 | 1007.5 |
| 20260510174704 | 88 | 103 | 5.0 | 13.0 | 0.00 | 0.00 | 0.00 | 67 | 1007.6 |
| 20260510174602 | 88 | 104 | 5.0 | 13.0 | 0.00 | 0.00 | 0.00 | 66 | 1007.5 |
| 20260510174503 | 88 | 128 | 4.0 | 13.0 | 0.00 | 0.00 | 0.00 | 66 | 1007.6 |
| 20260510174403 | 88 | 161 | 4.0 | 13.0 | 0.00 | 0.00 | 0.00 | 66 | 1007.6 |
| 20260510174304 | 88 | 140 | 7.0 | 13.0 | 0.00 | 0.00 | 0.00 | 65 | 1007.6 |
| 20260510174203 | 88 | 123 | 8.0 | 13.0 | 0.00 | 0.00 | 0.00 | 66 | 1007.6 |
| 20260510174103 | 88 | 128 | 7.0 | 11.0 | 0.00 | 0.00 | 0.00 | 66 | 1007.6 |
| 20260510174002 | 88 | 94 | 7.0 | 11.0 | 0.00 | 0.00 | 0.00 | 66 | 1007.6 |
| 20260510173903 | 88 | 104 | 6.0 | 9.0 | 0.00 | 0.00 | 0.00 | 67 | 1007.6 |
| 20260510173803 | 88 | 107 | 5.0 | 6.0 | 0.00 | 0.00 | 0.00 | 68 | 1007.6 |
| 20260510173703 | 88 | 113 | 4.0 | 6.0 | 0.00 | 0.00 | 0.00 | 68 | 1007.6 |
| 20260510173603 | 88 | 113 | 3.0 | 10.0 | 0.00 | 0.00 | 0.00 | 68 | 1007.6 |
| 20260510173504 | 88 | 186 | 3.0 | 10.0 | 0.00 | 0.00 | 0.00 | 68 | 1007.6 |
| 20260510173402 | 88 | 161 | 3.0 | 10.0 | 0.00 | 0.00 | 0.00 | 69 | 1007.6 |
| 20260510173304 | 87 | 134 | 2.0 | 10.0 | 0.00 | 0.00 | 0.00 | 69 | 1007.6 |
| 20260510173203 | 87 | 161 | 2.0 | 10.0 | 0.00 | 0.00 | 0.00 | 70 | 1007.6 |
| 20260510173102 | 87 | 154 | 2.0 | 11.0 | 0.00 | 0.00 | 0.00 | 69 | 1007.7 |
| 20260510173005 | 87 | 133 | 4.0 | 11.0 | 0.00 | 0.00 | 0.00 | 68 | 1007.7 |
| 20260510172902 | 87 | 168 | 4.0 | 11.0 | 0.00 | 0.00 | 0.00 | 68 | 1007.7 |
| 20260510172803 | 87 | 169 | 6.0 | 11.0 | 0.00 | 0.00 | 0.00 | 69 | 1007.7 |
| 20260510172703 | 87 | 144 | 6.0 | 11.0 | 0.00 | 0.00 | 0.00 | 69 | 1007.8 |
| 20260510172602 | 86 | 75 | 5.0 | 11.0 | 0.00 | 0.00 | 0.00 | 68 | 1007.8 |
| 20260510172503 | 86 | 113 | 5.0 | 11.0 | 0.00 | 0.00 | 0.00 | 69 | 1007.8 |
| 20260510172403 | 86 | 102 | 6.0 | 11.0 | 0.00 | 0.00 | 0.00 | 68 | 1007.9 |
| 20260510172306 | 86 | 114 | 7.0 | 11.0 | 0.00 | 0.00 | 0.00 | 68 | 1007.8 |
| 20260510172202 | 87 | 110 | 6.0 | 11.0 | 0.00 | 0.00 | 0.00 | 69 | 1007.9 |
| 20260510172102 | 86 | 103 | 6.0 | 11.0 | 0.00 | 0.00 | 0.00 | 69 | 1007.9 |
| 20260510172003 | 86 | 147 | 7.0 | 11.0 | 0.00 | 0.00 | 0.00 | 69 | 1007.8 |
| 20260510171905 | 86 | 85 | 5.0 | 11.0 | 0.00 | 0.00 | 0.00 | 68 | 1007.9 |
| 20260510171802 | 86 | 110 | 4.0 | 9.0 | 0.00 | 0.00 | 0.00 | 68 | 1007.8 |
| 20260510171704 | 86 | 100 | 4.0 | 9.0 | 0.00 | 0.00 | 0.00 | 68 | 1008.0 |
| 20260510171603 | 87 | 135 | 5.0 | 9.0 | 0.00 | 0.00 | 0.00 | 69 | 1008.0 |
| 20260510171455 | 87 | 89 | 4.0 | 9.0 | 0.00 | 0.00 | 0.00 | 69 | 1008.0 |
| 20260510171340 | 87 | 145 | 4.0 | 10.0 | 0.00 | 0.00 | 0.00 | 69 | 1008.0 |
| 20260510171239 | 87 | 169 | 5.0 | 10.0 | 0.00 | 0.00 | 0.00 | 69 | 1008.1 |
| 20260510171136 | 87 | 118 | 6.0 | 10.0 | 0.00 | 0.00 | 0.00 | 68 | 1008.1 |
| 20260510171032 | 86 | 107 | 7.0 | 10.0 | 0.00 | 0.00 | 0.00 | 70 | 1008.0 |
| 20260510170933 | 86 | 104 | 6.0 | 10.0 | 0.00 | 0.00 | 0.00 | 70 | 1008.0 |
| 20260510170831 | 86 | 104 | 5.0 | 10.0 | 0.00 | 0.00 | 0.00 | 69 | 1008.1 |
| 20260510170731 | 86 | 71 | 5.0 | 10.0 | 0.00 | 0.00 | 0.00 | 69 | 1008.0 |
| 20260510170632 | 85 | 103 | 6.0 | 10.0 | 0.00 | 0.00 | 0.00 | 68 | 1008.1 |
| 20260510170533 | 85 | 117 | 7.0 | 10.0 | 0.00 | 0.00 | 0.00 | 68 | 1008.2 |
| 20260510170431 | 85 | 110 | 6.0 | 10.0 | 0.00 | 0.00 | 0.00 | 70 | 1008.1 |
| 20260510170333 | 85 | 72 | 2.0 | 10.0 | 0.00 | 0.00 | 0.00 | 72 | 1008.2 |
| 20260510170232 | 85 | 111 | 2.0 | 10.0 | 0.00 | 0.00 | 0.00 | 71 | 1008.2 |
| 20260510170132 | 85 | 111 | 2.0 | 10.0 | 0.00 | 0.00 | 0.00 | 71 | 1008.2 |
| 20260510170029 | 85 | 111 | 2.0 | 10.0 | 0.00 | 0.00 | 0.00 | 70 | 1008.2 |
| 20260510165929 | 85 | 111 | 4.0 | 10.0 | 0.00 | 0.00 | 0.00 | 70 | 1008.3 |
| 20260510165813 | 85 | 114 | 5.0 | 10.0 | 0.00 | 0.00 | 0.00 | 70 | 1008.2 |
| 20260510165714 | 85 | 65 | 6.0 | 11.0 | 0.00 | 0.00 | 0.00 | 69 | 1008.3 |
| 20260510165610 | 85 | 76 | 6.0 | 11.0 | 0.00 | 0.00 | 0.00 | 69 | 1008.2 |
| 20260510165508 | 85 | 114 | 5.0 | 11.0 | 0.00 | 0.00 | 0.00 | 71 | 1008.2 |
| 20260510165408 | 85 | 61 | 4.0 | 11.0 | 0.00 | 0.00 | 0.00 | 71 | 1008.2 |
| 20260510165308 | 85 | 56 | 4.0 | 11.0 | 0.00 | 0.00 | 0.00 | 71 | 1008.2 |
| 20260510165210 | 86 | 21 | 5.0 | 11.0 | 0.00 | 0.00 | 0.00 | 71 | 1008.2 |
| 20260510165109 | 86 | 68 | 5.0 | 11.0 | 0.00 | 0.00 | 0.00 | 71 | 1008.3 |
| 20260510165008 | 86 | 107 | 5.0 | 11.0 | 0.00 | 0.00 | 0.00 | 71 | 1008.2 |
| 20260510164909 | 85 | 73 | 5.0 | 11.0 | 0.00 | 0.00 | 0.00 | 71 | 1008.2 |
| 20260510164811 | 85 | 83 | 4.0 | 11.0 | 0.00 | 0.00 | 0.00 | 71 | 1008.1 |
| 20260510164710 | 85 | 93 | 4.0 | 9.0 | 0.00 | 0.00 | 0.00 | 70 | 1008.3 |
| 20260510164608 | 85 | 51 | 5.0 | 11.0 | 0.00 | 0.00 | 0.00 | 70 | 1008.3 |
| 20260510164508 | 85 | 13 | 4.0 | 11.0 | 0.00 | 0.00 | 0.00 | 71 | 1008.3 |
| 20260510164409 | 85 | 87 | 4.0 | 11.0 | 0.00 | 0.00 | 0.00 | 71 | 1008.3 |
| 20260510164310 | 86 | 54 | 4.0 | 11.0 | 0.00 | 0.00 | 0.00 | 70 | 1008.2 |
| 20260510164210 | 85 | 107 | 5.0 | 11.0 | 0.00 | 0.00 | 0.00 | 70 | 1008.3 |
| 20260510164109 | 85 | 103 | 6.0 | 11.0 | 0.00 | 0.00 | 0.00 | 70 | 1008.3 |
| 20260510164009 | 85 | 111 | 6.0 | 11.0 | 0.00 | 0.00 | 0.00 | 70 | 1008.4 |
| 20260510163910 | 85 | 104 | 6.0 | 11.0 | 0.00 | 0.00 | 0.00 | 70 | 1008.4 |
| 20260510163809 | 85 | 123 | 7.0 | 11.0 | 0.00 | 0.00 | 0.00 | 70 | 1008.3 |
| 20260510163711 | 85 | 106 | 5.0 | 11.0 | 0.00 | 0.00 | 0.00 | 70 | 1008.3 |
| 20260510163608 | 85 | 90 | 3.0 | 9.0 | 0.00 | 0.00 | 0.00 | 73 | 1008.4 |
| 20260510163509 | 85 | 100 | 4.0 | 11.0 | 0.00 | 0.00 | 0.00 | 70 | 1008.3 |
| 20260510163410 | 85 | 117 | 4.0 | 11.0 | 0.00 | 0.00 | 0.00 | 70 | 1008.3 |
| 20260510163308 | 85 | 80 | 4.0 | 11.0 | 0.00 | 0.00 | 0.00 | 70 | 1008.3 |
| 20260510163208 | 85 | 62 | 4.0 | 11.0 | 0.00 | 0.00 | 0.00 | 70 | 1008.3 |
| 20260510163110 | 85 | 76 | 5.0 | 11.0 | 0.00 | 0.00 | 0.00 | 70 | 1008.4 |
| 20260510163008 | 85 | 124 | 4.0 | 12.0 | 0.00 | 0.00 | 0.00 | 71 | 1008.4 |
| 20260510162909 | 85 | 104 | 3.0 | 12.0 | 0.00 | 0.00 | 0.00 | 70 | 1008.4 |
| 20260510162810 | 85 | 69 | 4.0 | 12.0 | 0.00 | 0.00 | 0.00 | 70 | 1008.5 |
| 20260510162709 | 85 | 110 | 6.0 | 12.0 | 0.00 | 0.00 | 0.00 | 70 | 1008.4 |
| 20260510162605 | 85 | 106 | 6.0 | 12.0 | 0.00 | 0.00 | 0.00 | 71 | 1008.4 |
| 20260510162505 | 85 | 102 | 4.0 | 12.0 | 0.00 | 0.00 | 0.00 | 71 | 1008.4 |
| 20260510162402 | 84 | 130 | 4.0 | 12.0 | 0.00 | 0.00 | 0.00 | 71 | 1008.5 |
| 20260510162306 | 84 | 107 | 6.0 | 12.0 | 0.00 | 0.00 | 0.00 | 72 | 1008.4 |
| 20260510162202 | 84 | 90 | 7.0 | 13.0 | 0.00 | 0.00 | 0.00 | 72 | 1008.4 |
| 20260510162104 | 84 | 87 | 6.0 | 13.0 | 0.00 | 0.00 | 0.00 | 71 | 1008.4 |
| 20260510162004 | 84 | 42 | 5.0 | 13.0 | 0.00 | 0.00 | 0.00 | 71 | 1008.4 |
| 20260510161902 | 84 | 73 | 5.0 | 13.0 | 0.00 | 0.00 | 0.00 | 72 | 1008.5 |
| 20260510161804 | 84 | 103 | 5.0 | 13.0 | 0.00 | 0.00 | 0.00 | 72 | 1008.6 |
| 20260510161703 | 84 | 99 | 5.0 | 13.0 | 0.00 | 0.00 | 0.00 | 72 | 1008.6 |
| 20260510161604 | 84 | 78 | 4.0 | 13.0 | 0.00 | 0.00 | 0.00 | 72 | 1008.6 |
| 20260510161504 | 84 | 106 | 6.0 | 13.0 | 0.00 | 0.00 | 0.00 | 72 | 1008.6 |
| 20260510161402 | 84 | 34 | 8.0 | 13.0 | 0.00 | 0.00 | 0.00 | 72 | 1008.7 |
| 20260510161303 | 84 | 127 | 8.0 | 13.0 | 0.00 | 0.00 | 0.00 | 72 | 1008.7 |
| 20260510161203 | 84 | 87 | 7.0 | 11.0 | 0.00 | 0.00 | 0.00 | 72 | 1008.7 |
| 20260510161103 | 84 | 113 | 6.0 | 11.0 | 0.00 | 0.00 | 0.00 | 72 | 1008.6 |
| 20260510161004 | 83 | 86 | 6.0 | 10.0 | 0.00 | 0.00 | 0.00 | 76 | 1008.7 |
| 20260510160902 | 83 | 106 | 5.0 | 10.0 | 0.00 | 0.00 | 0.00 | 76 | 1008.7 |
| 20260510160804 | 83 | 103 | 2.0 | 6.0 | 0.00 | 0.00 | 0.00 | 75 | 1008.8 |
| 20260510160704 | 83 | 106 | 3.0 | 6.0 | 0.00 | 0.00 | 0.00 | 74 | 1008.7 |
| 20260510160604 | 83 | 107 | 5.0 | 6.0 | 0.00 | 0.00 | 0.00 | 75 | 1008.7 |
| 20260510160503 | 83 | 110 | 4.0 | 6.0 | 0.00 | 0.00 | 0.00 | 75 | 1008.7 |
| 20260510160402 | 83 | 114 | 4.0 | 6.0 | 0.00 | 0.00 | 0.00 | 75 | 1008.8 |
| 20260510160304 | 83 | 73 | 3.0 | 6.0 | 0.00 | 0.00 | 0.00 | 75 | 1008.8 |
| 20260510160204 | 83 | 63 | 2.0 | 6.0 | 0.00 | 0.00 | 0.00 | 75 | 1008.8 |
| 20260510160002 | 82 | 102 | 2.0 | 7.0 | 0.00 | 0.00 | 0.00 | 75 | 1008.8 |
| 20260510155903 | 82 | 78 | 2.0 | 7.0 | 0.00 | 0.00 | 0.00 | 74 | 1008.8 |
| 20260510155803 | 83 | 79 | 3.0 | 7.0 | 0.00 | 0.00 | 0.00 | 74 | 1008.8 |
| 20260510155702 | 83 | 79 | 3.0 | 7.0 | 0.00 | 0.00 | 0.00 | 74 | 1008.8 |
| 20260510155602 | 83 | 111 | 4.0 | 7.0 | 0.00 | 0.00 | 0.00 | 75 | 1008.8 |
| 20260510155503 | 83 | 111 | 5.0 | 7.0 | 0.00 | 0.00 | 0.00 | 75 | 1008.8 |
| 20260510155403 | 83 | 104 | 5.0 | 7.0 | 0.00 | 0.00 | 0.00 | 75 | 1008.7 |
| 20260510155305 | 83 | 38 | 4.0 | 10.0 | 0.00 | 0.00 | 0.00 | 74 | 1008.7 |
| 20260510155204 | 83 | 89 | 4.0 | 10.0 | 0.00 | 0.00 | 0.00 | 74 | 1008.8 |
| 20260510155101 | 83 | 56 | 4.0 | 10.0 | 0.00 | 0.00 | 0.00 | 74 | 1008.8 |
| 20260510155004 | 83 | 94 | 4.0 | 10.0 | 0.00 | 0.00 | 0.00 | 74 | 1008.8 |
| 20260510154903 | 83 | 85 | 4.0 | 10.0 | 0.00 | 0.00 | 0.00 | 74 | 1008.8 |
| 20260510154804 | 83 | 85 | 3.0 | 10.0 | 0.00 | 0.00 | 0.00 | 74 | 1008.8 |
| 20260510154704 | 83 | 68 | 3.0 | 10.0 | 0.00 | 0.00 | 0.00 | 73 | 1008.8 |
| 20260510154604 | 83 | 72 | 4.0 | 10.0 | 0.00 | 0.00 | 0.00 | 73 | 1008.8 |
| 20260510154505 | 83 | 63 | 5.0 | 10.0 | 0.00 | 0.00 | 0.00 | 74 | 1008.9 |
| 20260510154404 | 83 | 78 | 5.0 | 10.0 | 0.00 | 0.00 | 0.00 | 74 | 1008.9 |
| 20260510154303 | 83 | 90 | 5.0 | 6.0 | 0.00 | 0.00 | 0.00 | 74 | 1008.9 |
| 20260510154203 | 83 | 97 | 4.0 | 6.0 | 0.00 | 0.00 | 0.00 | 75 | 1009.0 |
| 20260510154102 | 83 | 83 | 3.0 | 6.0 | 0.00 | 0.00 | 0.00 | 77 | 1008.9 |
| 20260510154002 | 82 | 68 | 1.0 | 5.0 | 0.00 | 0.00 | 0.00 | 76 | 1009.0 |
| 20260510153903 | 82 | 69 | 1.0 | 6.0 | 0.00 | 0.00 | 0.00 | 77 | 1009.0 |
| 20260510153801 | 82 | 68 | 2.0 | 7.0 | 0.00 | 0.00 | 0.00 | 76 | 1008.9 |
| 20260510153703 | 82 | 68 | 3.0 | 7.0 | 0.00 | 0.00 | 0.00 | 76 | 1009.0 |
| 20260510153604 | 82 | 72 | 2.0 | 7.0 | 0.00 | 0.00 | 0.00 | 76 | 1009.0 |
| 20260510153505 | 82 | 99 | 3.0 | 7.0 | 0.00 | 0.00 | 0.00 | 76 | 1009.0 |
| 20260510153405 | 82 | 99 | 4.0 | 7.0 | 0.00 | 0.00 | 0.00 | 76 | 1008.9 |
| 20260510153301 | 82 | 85 | 3.0 | 7.0 | 0.00 | 0.00 | 0.00 | 76 | 1008.9 |
| 20260510153202 | 82 | 75 | 3.0 | 7.0 | 0.00 | 0.00 | 0.00 | 77 | 1009.1 |
| 20260510153103 | 82 | 90 | 4.0 | 7.0 | 0.00 | 0.00 | 0.00 | 76 | 1009.0 |
| 20260510153004 | 82 | 93 | 5.0 | 7.0 | 0.00 | 0.00 | 0.00 | 76 | 1009.0 |
| 20260510152902 | 82 | 63 | 4.0 | 7.0 | 0.00 | 0.00 | 0.00 | 76 | 1009.0 |
| 20260510152804 | 82 | 96 | 4.0 | 7.0 | 0.00 | 0.00 | 0.00 | 77 | 1009.0 |
| 20260510152703 | 82 | 102 | 3.0 | 7.0 | 0.00 | 0.00 | 0.00 | 77 | 1009.0 |
| 20260510152603 | 82 | 41 | 3.0 | 7.0 | 0.00 | 0.00 | 0.00 | 76 | 1009.1 |
| 20260510152504 | 82 | 73 | 4.0 | 7.0 | 0.00 | 0.00 | 0.00 | 76 | 1009.0 |
| 20260510152403 | 82 | 89 | 4.0 | 7.0 | 0.00 | 0.00 | 0.00 | 77 | 1009.0 |
| 20260510152306 | 82 | 117 | 3.0 | 7.0 | 0.00 | 0.00 | 0.00 | 77 | 1009.1 |
| 20260510152203 | 82 | 92 | 3.0 | 7.0 | 0.00 | 0.00 | 0.00 | 79 | 1009.0 |
| 20260510152103 | 81 | 92 | 3.0 | 7.0 | 0.00 | 0.00 | 0.00 | 78 | 1009.0 |
| 20260510152004 | 81 | 92 | 3.0 | 7.0 | 0.00 | 0.00 | 0.00 | 79 | 1009.1 |
| 20260510151903 | 81 | 96 | 1.0 | 7.0 | 0.00 | 0.00 | 0.00 | 79 | 1009.0 |
| 20260510151804 | 81 | 25 | 2.0 | 7.0 | 0.00 | 0.00 | 0.00 | 79 | 1009.1 |
| 20260510151703 | 81 | 25 | 3.0 | 7.0 | 0.00 | 0.00 | 0.00 | 79 | 1009.0 |
| 20260510151603 | 80 | 16 | 4.0 | 7.0 | 0.00 | 0.00 | 0.00 | 79 | 1009.0 |
| 20260510151502 | 81 | 16 | 4.0 | 7.0 | 0.00 | 0.00 | 0.00 | 79 | 1009.0 |
| 20260510151402 | 81 | 7 | 3.0 | 7.0 | 0.00 | 0.00 | 0.00 | 79 | 1009.0 |
| 20260510151303 | 81 | 13 | 3.0 | 7.0 | 0.00 | 0.00 | 0.00 | 80 | 1009.1 |
| 20260510151202 | 80 | 13 | 4.0 | 7.0 | 0.00 | 0.00 | 0.00 | 79 | 1009.0 |
| 20260510151104 | 80 | 0 | 5.0 | 7.0 | 0.00 | 0.00 | 0.00 | 79 | 1009.1 |
| 20260510151004 | 81 | 24 | 5.0 | 7.0 | 0.00 | 0.00 | 0.00 | 79 | 1009.1 |
| 20260510150902 | 81 | 0 | 4.0 | 7.0 | 0.00 | 0.00 | 0.00 | 80 | 1009.1 |
| 20260510150803 | 81 | 21 | 4.0 | 6.0 | 0.00 | 0.00 | 0.00 | 79 | 1009.1 |
| 20260510150704 | 81 | 75 | 3.0 | 6.0 | 0.00 | 0.00 | 0.00 | 79 | 1009.0 |
| 20260510150603 | 81 | 97 | 2.0 | 6.0 | 0.00 | 0.00 | 0.00 | 79 | 1009.2 |
| 20260510150502 | 81 | 97 | 2.0 | 6.0 | 0.00 | 0.00 | 0.00 | 79 | 1009.1 |
| 20260510150402 | 81 | 99 | 2.0 | 6.0 | 0.00 | 0.00 | 0.00 | 80 | 1009.1 |
| 20260510150303 | 80 | 99 | 3.0 | 6.0 | 0.00 | 0.00 | 0.00 | 80 | 1009.0 |
| 20260510150201 | 80 | 106 | 2.0 | 9.0 | 0.00 | 0.00 | 0.00 | 81 | 1009.0 |
| 20260510150104 | 80 | 45 | 0.0 | 9.0 | 0.00 | 0.00 | 0.00 | 80 | 1009.0 |
| 20260510150004 | 80 | 44 | 2.0 | 9.0 | 0.00 | 0.00 | 0.00 | 80 | 1009.0 |
| 20260510145903 | 80 | 45 | 3.0 | 9.0 | 0.00 | 0.00 | 0.00 | 80 | 1008.9 |
| 20260510145803 | 80 | 85 | 3.0 | 9.0 | 0.00 | 0.00 | 0.00 | 80 | 1008.9 |
| 20260510145701 | 80 | 73 | 3.0 | 9.0 | 0.00 | 0.00 | 0.00 | 80 | 1008.9 |
| 20260510145603 | 80 | 35 | 4.0 | 9.0 | 0.00 | 0.00 | 0.00 | 80 | 1008.9 |
| 20260510145504 | 81 | 30 | 4.0 | 9.0 | 0.00 | 0.00 | 0.00 | 80 | 1008.9 |
| 20260510145404 | 81 | 51 | 4.0 | 9.0 | 0.00 | 0.00 | 0.00 | 80 | 1008.9 |
| 20260510145305 | 81 | 51 | 4.0 | 9.0 | 0.00 | 0.00 | 0.00 | 81 | 1008.9 |
| 20260510145203 | 81 | 38 | 2.0 | 5.0 | 0.00 | 0.00 | 0.00 | 81 | 1008.9 |
| 20260510145103 | 80 | 45 | 2.0 | 4.0 | 0.00 | 0.00 | 0.00 | 81 | 1008.9 |
| 20260510145003 | 80 | 63 | 2.0 | 4.0 | 0.00 | 0.00 | 0.00 | 81 | 1008.8 |
| 20260510144903 | 80 | 54 | 2.0 | 5.0 | 0.00 | 0.00 | 0.00 | 81 | 1008.8 |
| 20260510144803 | 80 | 52 | 2.0 | 5.0 | 0.00 | 0.00 | 0.00 | 81 | 1008.9 |
| 20260510144702 | 80 | 52 | 2.0 | 5.0 | 0.00 | 0.00 | 0.00 | 81 | 1008.9 |
| 20260510144604 | 80 | 35 | 2.0 | 6.0 | 0.00 | 0.00 | 0.00 | 81 | 1008.9 |
| 20260510144504 | 80 | 94 | 2.0 | 6.0 | 0.00 | 0.00 | 0.00 | 81 | 1008.9 |
| 20260510144404 | 80 | 102 | 2.0 | 6.0 | 0.00 | 0.00 | 0.00 | 81 | 1008.9 |
| 20260510144302 | 79 | 103 | 2.0 | 6.0 | 0.00 | 0.00 | 0.00 | 81 | 1008.9 |
| 20260510144203 | 79 | 103 | 2.0 | 6.0 | 0.00 | 0.00 | 0.00 | 80 | 1008.8 |
| 20260510144103 | 80 | 103 | 3.0 | 6.0 | 0.00 | 0.00 | 0.00 | 80 | 1008.8 |
| 20260510144003 | 80 | 103 | 2.0 | 6.0 | 0.00 | 0.00 | 0.00 | 80 | 1008.9 |
| 20260510143904 | 80 | 35 | 2.0 | 7.0 | 0.00 | 0.00 | 0.00 | 80 | 1008.9 |
| 20260510143802 | 80 | 35 | 3.0 | 7.0 | 0.00 | 0.00 | 0.00 | 81 | 1009.0 |
| 20260510143703 | 80 | 94 | 3.0 | 7.0 | 0.00 | 0.00 | 0.00 | 81 | 1008.9 |
| 20260510143603 | 80 | 86 | 2.0 | 7.0 | 0.00 | 0.00 | 0.00 | 81 | 1008.9 |
| 20260510143504 | 80 | 99 | 2.0 | 7.0 | 0.00 | 0.00 | 0.00 | 81 | 1008.9 |
| 20260510143403 | 80 | 99 | 3.0 | 7.0 | 0.00 | 0.00 | 0.00 | 81 | 1008.9 |
| 20260510143302 | 80 | 102 | 3.0 | 7.0 | 0.00 | 0.00 | 0.00 | 81 | 1008.9 |
| 20260510143202 | 80 | 100 | 2.0 | 10.0 | 0.00 | 0.00 | 0.00 | 81 | 1008.9 |
| 20260510143102 | 80 | 47 | 3.0 | 10.0 | 0.00 | 0.00 | 0.00 | 81 | 1008.8 |
| 20260510143003 | 80 | 55 | 4.0 | 10.0 | 0.00 | 0.00 | 0.00 | 81 | 1008.9 |
| 20260510142904 | 80 | 17 | 2.0 | 10.0 | 0.00 | 0.00 | 0.00 | 81 | 1008.9 |
| 20260510142802 | 80 | 24 | 2.0 | 10.0 | 0.00 | 0.00 | 0.00 | 82 | 1008.8 |
| 20260510142703 | 80 | 73 | 3.0 | 10.0 | 0.00 | 0.00 | 0.00 | 81 | 1008.8 |
| 20260510142604 | 80 | 38 | 4.0 | 10.0 | 0.00 | 0.00 | 0.00 | 81 | 1008.9 |
| 20260510142504 | 80 | 55 | 4.0 | 10.0 | 0.00 | 0.00 | 0.00 | 82 | 1008.8 |
| 20260510142403 | 80 | 20 | 4.0 | 10.0 | 0.00 | 0.00 | 0.00 | 82 | 1008.8 |
| 20260510142305 | 80 | 55 | 4.0 | 10.0 | 0.00 | 0.00 | 0.00 | 82 | 1008.8 |
| 20260510142203 | 80 | 38 | 3.0 | 9.0 | 0.00 | 0.00 | 0.00 | 82 | 1008.9 |
| 20260510142102 | 80 | 35 | 4.0 | 9.0 | 0.00 | 0.00 | 0.00 | 82 | 1008.8 |
| 20260510142003 | 80 | 71 | 4.0 | 9.0 | 0.00 | 0.00 | 0.00 | 82 | 1008.9 |
| 20260510141903 | 80 | 59 | 4.0 | 9.0 | 0.00 | 0.00 | 0.00 | 82 | 1008.9 |
| 20260510141804 | 80 | 61 | 2.0 | 9.0 | 0.00 | 0.00 | 0.00 | 82 | 1008.9 |
| 20260510141703 | 79 | 68 | 2.0 | 9.0 | 0.00 | 0.00 | 0.00 | 83 | 1008.8 |
| 20260510141602 | 79 | 69 | 2.0 | 9.0 | 0.00 | 0.00 | 0.00 | 83 | 1008.8 |
| 20260510141502 | 79 | 20 | 3.0 | 9.0 | 0.00 | 0.00 | 0.00 | 83 | 1008.8 |
| 20260510141402 | 79 | 75 | 2.0 | 9.0 | 0.00 | 0.00 | 0.00 | 83 | 1008.8 |
| 20260510141303 | 79 | 89 | 4.0 | 9.0 | 0.00 | 0.00 | 0.00 | 84 | 1008.9 |
| 20260510141202 | 79 | 71 | 4.0 | 9.0 | 0.00 | 0.00 | 0.00 | 84 | 1008.8 |
| 20260510141101 | 78 | 65 | 3.0 | 7.0 | 0.00 | 0.00 | 0.00 | 84 | 1008.9 |
| 20260510141003 | 78 | 69 | 3.0 | 7.0 | 0.00 | 0.00 | 0.00 | 84 | 1008.9 |
| 20260510140902 | 78 | 73 | 3.0 | 6.0 | 0.00 | 0.00 | 0.00 | 84 | 1008.9 |
| 20260510140805 | 78 | 73 | 3.0 | 7.0 | 0.00 | 0.00 | 0.00 | 84 | 1008.8 |
| 20260510140703 | 78 | 111 | 3.0 | 7.0 | 0.00 | 0.00 | 0.00 | 84 | 1008.8 |
| 20260510140603 | 78 | 32 | 2.0 | 7.0 | 0.00 | 0.00 | 0.00 | 84 | 1008.9 |
| 20260510140503 | 78 | 0 | 2.0 | 7.0 | 0.00 | 0.00 | 0.00 | 84 | 1008.8 |
| 20260510140403 | 78 | 38 | 2.0 | 7.0 | 0.00 | 0.00 | 0.00 | 84 | 1008.8 |
| 20260510140302 | 78 | 38 | 2.0 | 7.0 | 0.00 | 0.00 | 0.00 | 85 | 1008.8 |
| 20260510140204 | 78 | 62 | 2.0 | 7.0 | 0.00 | 0.00 | 0.00 | 85 | 1008.8 |
| 20260510140003 | 78 | 69 | 4.0 | 7.0 | 0.00 | 0.00 | 0.00 | 85 | 1008.8 |
| 20260510135904 | 78 | 45 | 4.0 | 7.0 | 0.00 | 0.00 | 0.00 | 85 | 1008.7 |
| 20260510135802 | 78 | 86 | 2.0 | 6.0 | 0.00 | 0.00 | 0.00 | 85 | 1008.7 |
| 20260510135702 | 77 | 58 | 1.0 | 6.0 | 0.00 | 0.00 | 0.00 | 85 | 1008.6 |
| 20260510135603 | 77 | 61 | 2.0 | 6.0 | 0.00 | 0.00 | 0.00 | 85 | 1008.7 |
| 20260510135504 | 77 | 86 | 2.0 | 6.0 | 0.00 | 0.00 | 0.00 | 85 | 1008.6 |
| 20260510135404 | 77 | 85 | 2.0 | 6.0 | 0.00 | 0.00 | 0.00 | 85 | 1008.7 |
| 20260510135305 | 77 | 87 | 3.0 | 6.0 | 0.00 | 0.00 | 0.00 | 85 | 1008.7 |
| 20260510135204 | 77 | 102 | 2.0 | 6.0 | 0.00 | 0.00 | 0.00 | 86 | 1008.7 |
| 20260510135103 | 77 | 72 | 2.0 | 6.0 | 0.00 | 0.00 | 0.00 | 86 | 1008.7 |
| 20260510135003 | 77 | 104 | 3.0 | 6.0 | 0.00 | 0.00 | 0.00 | 86 | 1008.7 |
| 20260510134902 | 77 | 78 | 3.0 | 5.0 | 0.00 | 0.00 | 0.00 | 86 | 1008.6 |
| 20260510134804 | 77 | 82 | 3.0 | 5.0 | 0.00 | 0.00 | 0.00 | 86 | 1008.6 |
| 20260510134703 | 77 | 100 | 2.0 | 6.0 | 0.00 | 0.00 | 0.00 | 86 | 1008.6 |
| 20260510134602 | 77 | 73 | 2.0 | 6.0 | 0.00 | 0.00 | 0.00 | 86 | 1008.6 |
| 20260510134501 | 77 | 96 | 2.0 | 6.0 | 0.00 | 0.00 | 0.00 | 86 | 1008.6 |
| 20260510134403 | 77 | 97 | 1.0 | 6.0 | 0.00 | 0.00 | 0.00 | 86 | 1008.6 |
| 20260510134304 | 77 | 96 | 0.0 | 7.0 | 0.00 | 0.00 | 0.00 | 86 | 1008.5 |
| 20260510134204 | 77 | 96 | 1.0 | 7.0 | 0.00 | 0.00 | 0.00 | 86 | 1008.5 |
| 20260510134102 | 77 | 97 | 1.0 | 7.0 | 0.00 | 0.00 | 0.00 | 87 | 1008.5 |
| 20260510134002 | 77 | 100 | 1.0 | 7.0 | 0.00 | 0.00 | 0.00 | 87 | 1008.5 |
| 20260510133903 | 77 | 90 | 2.0 | 7.0 | 0.00 | 0.00 | 0.00 | 87 | 1008.5 |
| 20260510133802 | 77 | 92 | 2.0 | 7.0 | 0.00 | 0.00 | 0.00 | 87 | 1008.4 |
| 20260510133704 | 77 | 85 | 1.0 | 7.0 | 0.00 | 0.00 | 0.00 | 87 | 1008.5 |
| 20260510133603 | 77 | 83 | 1.0 | 7.0 | 0.00 | 0.00 | 0.00 | 87 | 1008.4 |
| 20260510133504 | 77 | 83 | 3.0 | 7.0 | 0.00 | 0.00 | 0.00 | 87 | 1008.4 |
| 20260510133403 | 77 | 89 | 4.0 | 7.0 | 0.00 | 0.00 | 0.00 | 88 | 1008.3 |
| 20260510133303 | 77 | 90 | 2.0 | 7.0 | 0.00 | 0.00 | 0.00 | 88 | 1008.4 |
| 20260510133202 | 77 | 66 | 2.0 | 7.0 | 0.00 | 0.00 | 0.00 | 88 | 1008.4 |
| 20260510133104 | 76 | 63 | 1.0 | 7.0 | 0.00 | 0.00 | 0.00 | 88 | 1008.3 |
| 20260510133004 | 76 | 61 | 2.0 | 7.0 | 0.00 | 0.00 | 0.00 | 88 | 1008.3 |
| 20260510132904 | 76 | 3 | 3.0 | 7.0 | 0.00 | 0.00 | 0.00 | 88 | 1008.3 |
| 20260510132802 | 76 | 63 | 3.0 | 7.0 | 0.00 | 0.00 | 0.00 | 88 | 1008.3 |
| 20260510132703 | 76 | 55 | 3.0 | 7.0 | 0.00 | 0.00 | 0.00 | 88 | 1008.2 |
| 20260510132603 | 76 | 54 | 2.0 | 7.0 | 0.00 | 0.00 | 0.00 | 88 | 1008.3 |
| 20260510132504 | 76 | 55 | 1.0 | 7.0 | 0.00 | 0.00 | 0.00 | 88 | 1008.3 |
| 20260510132401 | 76 | 58 | 2.0 | 7.0 | 0.00 | 0.00 | 0.00 | 88 | 1008.3 |
| 20260510132305 | 76 | 61 | 3.0 | 7.0 | 0.00 | 0.00 | 0.00 | 88 | 1008.3 |
| 20260510132203 | 76 | 45 | 4.0 | 7.0 | 0.00 | 0.00 | 0.00 | 88 | 1008.3 |
| 20260510132103 | 76 | 78 | 4.0 | 7.0 | 0.00 | 0.00 | 0.00 | 88 | 1008.3 |
| 20260510132003 | 76 | 59 | 4.0 | 7.0 | 0.00 | 0.00 | 0.00 | 89 | 1008.2 |
| 20260510131903 | 76 | 79 | 4.0 | 9.0 | 0.00 | 0.00 | 0.00 | 89 | 1008.2 |
| 20260510131803 | 76 | 37 | 4.0 | 9.0 | 0.00 | 0.00 | 0.00 | 89 | 1008.2 |
| 20260510131703 | 76 | 30 | 3.0 | 9.0 | 0.00 | 0.00 | 0.00 | 89 | 1008.3 |
| 20260510131603 | 76 | 18 | 2.0 | 9.0 | 0.00 | 0.00 | 0.00 | 89 | 1008.2 |
| 20260510131504 | 76 | 37 | 2.0 | 9.0 | 0.00 | 0.00 | 0.00 | 89 | 1008.2 |
| 20260510131403 | 76 | 32 | 3.0 | 9.0 | 0.00 | 0.00 | 0.00 | 89 | 1008.2 |
| 20260510131303 | 76 | 66 | 4.0 | 9.0 | 0.00 | 0.00 | 0.00 | 89 | 1008.1 |
| 20260510131203 | 76 | 45 | 4.0 | 9.0 | 0.00 | 0.00 | 0.00 | 90 | 1008.1 |
| 20260510131104 | 76 | 44 | 4.0 | 9.0 | 0.00 | 0.00 | 0.00 | 90 | 1008.1 |
| 20260510131002 | 76 | 38 | 4.0 | 9.0 | 0.00 | 0.00 | 0.00 | 90 | 1008.1 |
| 20260510130904 | 76 | 47 | 3.0 | 6.0 | 0.00 | 0.00 | 0.00 | 90 | 1007.9 |
| 20260510130803 | 76 | 58 | 2.0 | 7.0 | 0.00 | 0.00 | 0.00 | 90 | 1008.0 |
| 20260510130703 | 76 | 63 | 2.0 | 7.0 | 0.00 | 0.00 | 0.00 | 90 | 1007.9 |
| 20260510130603 | 76 | 78 | 2.0 | 7.0 | 0.00 | 0.00 | 0.00 | 90 | 1007.8 |
| 20260510130503 | 76 | 65 | 3.0 | 7.0 | 0.00 | 0.00 | 0.00 | 90 | 1007.8 |
| 20260510130402 | 76 | 35 | 2.0 | 7.0 | 0.00 | 0.00 | 0.00 | 90 | 1007.8 |
| 20260510130304 | 76 | 39 | 2.0 | 7.0 | 0.00 | 0.00 | 0.00 | 90 | 1007.8 |
| 20260510130203 | 76 | 39 | 2.0 | 7.0 | 0.00 | 0.00 | 0.00 | 90 | 1007.8 |
| 20260510130002 | 75 | 62 | 3.0 | 7.0 | 0.00 | 0.00 | 0.00 | 90 | 1007.8 |
| 20260510125902 | 75 | 66 | 3.0 | 7.0 | 0.00 | 0.00 | 0.00 | 90 | 1007.8 |
| 20260510125803 | 75 | 45 | 2.0 | 5.0 | 0.00 | 0.00 | 0.00 | 90 | 1007.8 |
| 20260510125704 | 75 | 39 | 2.0 | 5.0 | 0.00 | 0.00 | 0.00 | 90 | 1007.8 |
| 20260510125556 | 75 | 59 | 2.0 | 5.0 | 0.00 | 0.00 | 0.00 | 90 | 1007.7 |
| 20260510125456 | 75 | 59 | 3.0 | 5.0 | 0.00 | 0.00 | 0.00 | 91 | 1007.8 |
| 20260510125349 | 75 | 58 | 2.0 | 5.0 | 0.00 | 0.00 | 0.00 | 91 | 1007.7 |
| 20260510125244 | 75 | 52 | 1.0 | 5.0 | 0.00 | 0.00 | 0.00 | 91 | 1007.7 |
| 20260510125139 | 75 | 49 | 2.0 | 5.0 | 0.00 | 0.00 | 0.00 | 91 | 1007.7 |
| 20260510125031 | 75 | 49 | 2.0 | 5.0 | 0.00 | 0.00 | 0.00 | 91 | 1007.7 |
| 20260510124932 | 75 | 66 | 2.0 | 4.0 | 0.00 | 0.00 | 0.00 | 91 | 1007.7 |
| 20260510124832 | 75 | 62 | 2.0 | 4.0 | 0.00 | 0.00 | 0.00 | 91 | 1007.7 |
| 20260510124728 | 75 | 58 | 0.0 | 4.0 | 0.00 | 0.00 | 0.00 | 91 | 1007.7 |
| 20260510124625 | 75 | 59 | 1.0 | 4.0 | 0.00 | 0.00 | 0.00 | 91 | 1007.7 |
| 20260510124524 | 75 | 56 | 2.0 | 4.0 | 0.00 | 0.00 | 0.00 | 91 | 1007.6 |
| 20260510124423 | 75 | 56 | 2.0 | 3.0 | 0.00 | 0.00 | 0.00 | 91 | 1007.6 |
| 20260510124317 | 75 | 54 | 2.0 | 3.0 | 0.00 | 0.00 | 0.00 | 91 | 1007.6 |
| 20260510124214 | 75 | 54 | 2.0 | 3.0 | 0.00 | 0.00 | 0.00 | 91 | 1007.6 |
| 20260510124113 | 74 | 41 | 2.0 | 3.0 | 0.00 | 0.00 | 0.00 | 91 | 1007.6 |
| 20260510124009 | 74 | 106 | 1.0 | 3.0 | 0.00 | 0.00 | 0.00 | 91 | 1007.5 |
| 20260510123906 | 74 | 106 | 1.0 | 3.0 | 0.00 | 0.00 | 0.00 | 91 | 1007.5 |
| 20260510123805 | 74 | 107 | 1.0 | 3.0 | 0.00 | 0.00 | 0.00 | 92 | 1007.5 |
| 20260510123702 | 74 | 140 | 1.0 | 3.0 | 0.00 | 0.00 | 0.00 | 91 | 1007.4 |
| 20260510123603 | 74 | 140 | 2.0 | 3.0 | 0.00 | 0.00 | 0.00 | 92 | 1007.4 |
| 20260510123504 | 74 | 140 | 2.0 | 3.0 | 0.00 | 0.00 | 0.00 | 91 | 1007.4 |
| 20260510123403 | 74 | 140 | 1.0 | 3.0 | 0.00 | 0.00 | 0.00 | 91 | 1007.4 |
| 20260510123301 | 74 | 140 | 1.0 | 3.0 | 0.00 | 0.00 | 0.00 | 91 | 1007.4 |
| 20260510123202 | 74 | 141 | 0.0 | 1.0 | 0.00 | 0.00 | 0.00 | 91 | 1007.3 |
| 20260510123103 | 74 | 141 | 0.0 | 0.0 | 0.00 | 0.00 | 0.00 | 91 | 1007.3 |
| 20260510123004 | 74 | 141 | 0.0 | 0.0 | 0.00 | 0.00 | 0.00 | 91 | 1007.3 |
| 20260510122850 | 74 | 141 | 0.0 | 0.0 | 0.00 | 0.00 | 0.00 | 91 | 1007.2 |
| 20260510122746 | 74 | 141 | 0.0 | 0.0 | 0.00 | 0.00 | 0.00 | 91 | 1007.2 |
| 20260510122645 | 74 | 141 | 0.0 | 0.0 | 0.00 | 0.00 | 0.00 | 91 | 1007.2 |
| 20260510122539 | 74 | 141 | 0.0 | 0.0 | 0.00 | 0.00 | 0.00 | 91 | 1007.2 |
| 20260510122440 | 74 | 141 | 0.0 | 0.0 | 0.00 | 0.00 | 0.00 | 91 | 1007.1 |
| 20260510122334 | 74 | 141 | 0.0 | 0.0 | 0.00 | 0.00 | 0.00 | 91 | 1007.1 |
| 20260510122233 | 74 | 141 | 0.0 | 0.0 | 0.00 | 0.00 | 0.00 | 91 | 1007.0 |
| 20260510122132 | 74 | 141 | 0.0 | 0.0 | 0.00 | 0.00 | 0.00 | 91 | 1007.1 |
| 20260510122032 | 74 | 141 | 0.0 | 0.0 | 0.00 | 0.00 | 0.00 | 91 | 1007.0 |
| 20260510121933 | 74 | 141 | 0.0 | 0.0 | 0.00 | 0.00 | 0.00 | 91 | 1007.1 |
| 20260510121832 | 74 | 141 | 0.0 | 0.0 | 0.00 | 0.00 | 0.00 | 91 | 1007.0 |
| 20260510121733 | 74 | 142 | 0.0 | 0.0 | 0.00 | 0.00 | 0.00 | 91 | 1006.9 |
| 20260510121630 | 74 | 142 | 0.0 | 0.0 | 0.00 | 0.00 | 0.00 | 91 | 1006.9 |
| 20260510121531 | 74 | 142 | 0.0 | 0.0 | 0.00 | 0.00 | 0.00 | 91 | 1006.9 |
| 20260510121424 | 74 | 142 | 0.0 | 0.0 | 0.00 | 0.00 | 0.00 | 91 | 1006.9 |
| 20260510121320 | 74 | 142 | 0.0 | 0.0 | 0.00 | 0.00 | 0.00 | 91 | 1006.9 |
| 20260510121219 | 74 | 142 | 0.0 | 0.0 | 0.00 | 0.00 | 0.00 | 91 | 1006.9 |
| 20260510121105 | 74 | 142 | 0.0 | 0.0 | 0.00 | 0.00 | 0.00 | 91 | 1006.9 |
| 20260510121006 | 74 | 142 | 0.0 | 0.0 | 0.00 | 0.00 | 0.00 | 91 | 1006.9 |
| 20260510120903 | 74 | 142 | 0.0 | 0.0 | 0.00 | 0.00 | 0.00 | 91 | 1006.9 |
| 20260510120804 | 74 | 142 | 0.0 | 0.0 | 0.00 | 0.00 | 0.00 | 91 | 1006.8 |
| 20260510120703 | 74 | 142 | 0.0 | 1.0 | 0.00 | 0.00 | 0.00 | 91 | 1006.8 |
| 20260510120603 | 74 | 142 | 0.0 | 1.0 | 0.00 | 0.00 | 0.00 | 91 | 1006.8 |
| 20260510120505 | 74 | 142 | 0.0 | 2.0 | 0.00 | 0.00 | 0.00 | 91 | 1006.8 |
| 20260510120402 | 74 | 142 | 0.0 | 2.0 | 0.00 | 0.00 | 0.00 | 91 | 1006.8 |
| 20260510120302 | 74 | 142 | 0.0 | 2.0 | 0.00 | 0.00 | 0.00 | 91 | 1006.7 |
| 20260510120203 | 74 | 142 | 0.0 | 2.0 | 0.00 | 0.00 | 0.00 | 91 | 1006.7 |
| 20260510120104 | 74 | 142 | 0.0 | 2.0 | 0.00 | 0.00 | 0.00 | 91 | 1006.7 |
| 20260510120004 | 74 | 142 | 0.0 | 2.0 | 0.00 | 0.00 | 0.00 | 91 | 1006.7 |
| 20260510115903 | 74 | 142 | 0.0 | 4.0 | 0.00 | 0.00 | 0.00 | 91 | 1006.7 |
| 20260510115803 | 74 | 142 | 1.0 | 4.0 | 0.00 | 0.00 | 0.00 | 91 | 1006.6 |
| 20260510115702 | 74 | 142 | 1.0 | 4.0 | 0.00 | 0.00 | 0.00 | 91 | 1006.5 |
| 20260510115602 | 74 | 142 | 1.0 | 4.0 | 0.00 | 0.00 | 0.00 | 91 | 1006.5 |
| 20260510115504 | 74 | 142 | 1.0 | 4.0 | 0.00 | 0.00 | 0.00 | 91 | 1006.5 |
| 20260510115403 | 74 | 142 | 1.0 | 4.0 | 0.00 | 0.00 | 0.00 | 91 | 1006.4 |
| 20260510115246 | 74 | 142 | 1.0 | 4.0 | 0.00 | 0.00 | 0.00 | 91 | 1006.4 |
| 20260510115146 | 74 | 142 | 2.0 | 4.0 | 0.00 | 0.00 | 0.00 | 91 | 1006.3 |
| 20260510115042 | 74 | 142 | 2.0 | 5.0 | 0.00 | 0.00 | 0.00 | 91 | 1006.3 |
| 20260510114939 | 74 | 144 | 2.0 | 5.0 | 0.00 | 0.00 | 0.00 | 91 | 1006.3 |
| 20260510114836 | 74 | 144 | 2.0 | 5.0 | 0.00 | 0.00 | 0.00 | 91 | 1006.3 |
| 20260510114731 | 74 | 148 | 2.0 | 5.0 | 0.00 | 0.00 | 0.00 | 91 | 1006.3 |
| 20260510114631 | 74 | 148 | 2.0 | 5.0 | 0.00 | 0.00 | 0.00 | 91 | 1006.3 |
| 20260510114529 | 74 | 154 | 2.0 | 5.0 | 0.00 | 0.00 | 0.00 | 91 | 1006.3 |
| 20260510114427 | 74 | 154 | 2.0 | 5.0 | 0.00 | 0.00 | 0.00 | 91 | 1006.3 |
| 20260510114326 | 74 | 155 | 2.0 | 5.0 | 0.00 | 0.00 | 0.00 | 91 | 1006.2 |
| 20260510114225 | 74 | 155 | 2.0 | 5.0 | 0.00 | 0.00 | 0.00 | 91 | 1006.2 |
| 20260510114124 | 74 | 137 | 1.0 | 5.0 | 0.00 | 0.00 | 0.00 | 91 | 1006.2 |
| 20260510114019 | 74 | 172 | 0.0 | 4.0 | 0.00 | 0.00 | 0.00 | 91 | 1006.1 |
| 20260510113915 | 74 | 155 | 0.0 | 4.0 | 0.00 | 0.00 | 0.00 | 91 | 1006.1 |
| 20260510113812 | 74 | 155 | 1.0 | 4.0 | 0.00 | 0.00 | 0.00 | 91 | 1006.1 |
| 20260510113703 | 74 | 154 | 2.0 | 4.0 | 0.00 | 0.00 | 0.00 | 91 | 1006.0 |
| 20260510113603 | 74 | 152 | 2.0 | 5.0 | 0.00 | 0.00 | 0.00 | 91 | 1006.1 |
| 20260510113502 | 74 | 149 | 2.0 | 5.0 | 0.00 | 0.00 | 0.00 | 91 | 1006.1 |
| 20260510113402 | 74 | 158 | 2.0 | 5.0 | 0.00 | 0.00 | 0.00 | 91 | 1006.0 |
| 20260510113303 | 74 | 147 | 0.0 | 5.0 | 0.00 | 0.00 | 0.00 | 91 | 1006.0 |
| 20260510113202 | 74 | 123 | 0.0 | 5.0 | 0.00 | 0.00 | 0.00 | 91 | 1006.0 |
| 20260510113104 | 74 | 110 | 0.0 | 5.0 | 0.00 | 0.00 | 0.00 | 91 | 1006.0 |
| 20260510113004 | 74 | 109 | 1.0 | 5.0 | 0.00 | 0.00 | 0.00 | 91 | 1005.9 |
| 20260510112902 | 74 | 107 | 2.0 | 5.0 | 0.00 | 0.00 | 0.00 | 91 | 1006.0 |
| 20260510112803 | 74 | 168 | 2.0 | 5.0 | 0.00 | 0.00 | 0.00 | 91 | 1005.8 |
| 20260510112702 | 74 | 120 | 2.0 | 5.0 | 0.00 | 0.00 | 0.00 | 91 | 1005.8 |
| 20260510112604 | 74 | 161 | 2.0 | 5.0 | 0.00 | 0.00 | 0.00 | 91 | 1005.8 |
| 20260510112504 | 74 | 172 | 3.0 | 5.0 | 0.00 | 0.00 | 0.00 | 91 | 1005.8 |
| 20260510112402 | 74 | 111 | 3.0 | 5.0 | 0.00 | 0.00 | 0.00 | 90 | 1005.8 |
| 20260510112305 | 74 | 145 | 2.0 | 5.0 | 0.00 | 0.00 | 0.00 | 90 | 1005.8 |
| 20260510112203 | 74 | 157 | 2.0 | 5.0 | 0.00 | 0.00 | 0.00 | 90 | 1005.8 |
| 20260510112103 | 74 | 127 | 2.0 | 5.0 | 0.00 | 0.00 | 0.00 | 90 | 1005.8 |
| 20260510112003 | 74 | 127 | 2.0 | 5.0 | 0.00 | 0.00 | 0.00 | 90 | 1005.8 |
| 20260510111902 | 74 | 164 | 2.0 | 5.0 | 0.00 | 0.00 | 0.00 | 90 | 1005.7 |
| 20260510111804 | 74 | 165 | 2.0 | 5.0 | 0.00 | 0.00 | 0.00 | 90 | 1005.7 |
| 20260510111703 | 74 | 168 | 1.0 | 5.0 | 0.00 | 0.00 | 0.00 | 90 | 1005.7 |
| 20260510111604 | 74 | 155 | 1.0 | 5.0 | 0.00 | 0.00 | 0.00 | 90 | 1005.7 |
| 20260510111503 | 74 | 147 | 1.0 | 5.0 | 0.00 | 0.00 | 0.00 | 90 | 1005.6 |
| 20260510111403 | 74 | 147 | 2.0 | 5.0 | 0.00 | 0.00 | 0.00 | 90 | 1005.7 |
| 20260510111303 | 74 | 147 | 2.0 | 5.0 | 0.00 | 0.00 | 0.00 | 90 | 1005.7 |
| 20260510111202 | 74 | 155 | 2.0 | 5.0 | 0.00 | 0.00 | 0.00 | 90 | 1005.6 |
| 20260510111102 | 74 | 158 | 2.0 | 5.0 | 0.00 | 0.00 | 0.00 | 90 | 1005.6 |
| 20260510111002 | 74 | 158 | 2.0 | 5.0 | 0.00 | 0.00 | 0.00 | 90 | 1005.6 |
| 20260510110903 | 74 | 182 | 2.0 | 5.0 | 0.00 | 0.00 | 0.00 | 90 | 1005.6 |
| 20260510110802 | 74 | 142 | 3.0 | 5.0 | 0.00 | 0.00 | 0.00 | 90 | 1005.6 |
| 20260510110702 | 74 | 152 | 3.0 | 5.0 | 0.00 | 0.00 | 0.00 | 90 | 1005.5 |
| 20260510110602 | 74 | 134 | 2.0 | 5.0 | 0.00 | 0.00 | 0.00 | 90 | 1005.5 |
| 20260510110503 | 74 | 152 | 2.0 | 4.0 | 0.00 | 0.00 | 0.00 | 90 | 1005.4 |
| 20260510110403 | 74 | 152 | 2.0 | 5.0 | 0.00 | 0.00 | 0.00 | 90 | 1005.3 |
| 20260510110302 | 74 | 151 | 2.0 | 5.0 | 0.00 | 0.00 | 0.00 | 90 | 1005.3 |
| 20260510110203 | 74 | 149 | 2.0 | 5.0 | 0.00 | 0.00 | 0.00 | 90 | 1005.4 |
| 20260510110000 | 74 | 161 | 1.0 | 5.0 | 0.00 | 0.00 | 0.00 | 90 | 1005.3 |
| 20260510105902 | 74 | 154 | 2.0 | 5.0 | 0.00 | 0.00 | 0.00 | 90 | 1005.4 |
| 20260510105802 | 74 | 147 | 2.0 | 7.0 | 0.00 | 0.00 | 0.00 | 90 | 1005.3 |
| 20260510105700 | 74 | 172 | 2.0 | 7.0 | 0.00 | 0.00 | 0.00 | 90 | 1005.4 |
| 20260510105601 | 74 | 173 | 2.0 | 7.0 | 0.00 | 0.00 | 0.00 | 90 | 1005.4 |
| 20260510105502 | 74 | 179 | 2.0 | 7.0 | 0.00 | 0.00 | 0.00 | 90 | 1005.4 |
| 20260510105402 | 74 | 158 | 1.0 | 7.0 | 0.00 | 0.00 | 0.00 | 90 | 1005.3 |
| 20260510105300 | 75 | 161 | 1.0 | 7.0 | 0.00 | 0.00 | 0.00 | 90 | 1005.3 |
| 20260510105201 | 74 | 161 | 2.0 | 7.0 | 0.00 | 0.00 | 0.00 | 90 | 1005.3 |
| 20260510105100 | 75 | 128 | 2.0 | 7.0 | 0.00 | 0.00 | 0.00 | 90 | 1005.2 |
| 20260510105002 | 75 | 165 | 3.0 | 7.0 | 0.00 | 0.00 | 0.00 | 90 | 1005.3 |
| 20260510104900 | 75 | 175 | 2.0 | 7.0 | 0.00 | 0.00 | 0.00 | 90 | 1005.4 |
| 20260510104800 | 75 | 159 | 1.0 | 6.0 | 0.00 | 0.00 | 0.00 | 90 | 1005.3 |
| 20260510104700 | 75 | 159 | 1.0 | 6.0 | 0.00 | 0.00 | 0.00 | 90 | 1005.4 |
| 20260510104600 | 75 | 159 | 1.0 | 6.0 | 0.00 | 0.00 | 0.00 | 90 | 1005.4 |
| 20260510104501 | 75 | 161 | 2.0 | 6.0 | 0.00 | 0.00 | 0.00 | 90 | 1005.4 |
| 20260510104402 | 75 | 161 | 2.0 | 6.0 | 0.00 | 0.00 | 0.00 | 90 | 1005.4 |
| 20260510104300 | 75 | 157 | 2.0 | 6.0 | 0.00 | 0.00 | 0.00 | 90 | 1005.4 |
| 20260510104201 | 74 | 155 | 2.0 | 6.0 | 0.00 | 0.00 | 0.00 | 90 | 1005.4 |
| 20260510104103 | 74 | 175 | 2.0 | 5.0 | 0.00 | 0.00 | 0.00 | 90 | 1005.4 |
| 20260510104001 | 74 | 176 | 2.0 | 5.0 | 0.00 | 0.00 | 0.00 | 90 | 1005.3 |
| 20260510103900 | 74 | 175 | 2.0 | 5.0 | 0.00 | 0.00 | 0.00 | 90 | 1005.4 |
| 20260510103801 | 74 | 179 | 2.0 | 5.0 | 0.00 | 0.00 | 0.00 | 90 | 1005.3 |
| 20260510103700 | 74 | 179 | 0.0 | 5.0 | 0.00 | 0.00 | 0.00 | 90 | 1005.4 |
| 20260510103602 | 74 | 162 | 1.0 | 10.0 | 0.00 | 0.00 | 0.00 | 90 | 1005.4 |
| 20260510103500 | 74 | 161 | 1.0 | 10.0 | 0.00 | 0.00 | 0.00 | 90 | 1005.5 |
| 20260510103400 | 74 | 158 | 1.0 | 10.0 | 0.00 | 0.00 | 0.00 | 90 | 1005.4 |
| 20260510103301 | 74 | 149 | 2.0 | 10.0 | 0.00 | 0.00 | 0.00 | 91 | 1005.4 |
| 20260510103203 | 74 | 173 | 2.0 | 10.0 | 0.00 | 0.00 | 0.00 | 91 | 1005.5 |
| 20260510103100 | 74 | 162 | 2.0 | 10.0 | 0.00 | 0.00 | 0.00 | 91 | 1005.4 |
| 20260510103001 | 74 | 178 | 3.0 | 10.0 | 0.00 | 0.00 | 0.00 | 91 | 1005.4 |
| 20260510102901 | 74 | 155 | 4.0 | 10.0 | 0.00 | 0.00 | 0.00 | 91 | 1005.4 |
| 20260510102801 | 74 | 159 | 5.0 | 10.0 | 0.00 | 0.00 | 0.00 | 91 | 1005.3 |
| 20260510102700 | 74 | 212 | 5.0 | 10.0 | 0.00 | 0.00 | 0.00 | 91 | 1005.4 |
| 20260510102602 | 74 | 111 | 4.0 | 6.0 | 0.00 | 0.00 | 0.00 | 91 | 1005.3 |
| 20260510102501 | 74 | 166 | 3.0 | 7.0 | 0.00 | 0.00 | 0.00 | 91 | 1005.3 |
| 20260510102401 | 74 | 149 | 2.0 | 7.0 | 0.00 | 0.00 | 0.00 | 91 | 1005.3 |
| 20260510102301 | 74 | 152 | 2.0 | 7.0 | 0.00 | 0.00 | 0.00 | 91 | 1005.3 |
| 20260510102200 | 74 | 168 | 2.0 | 7.0 | 0.00 | 0.00 | 0.00 | 91 | 1005.3 |
| 20260510102102 | 74 | 171 | 2.0 | 7.0 | 0.00 | 0.00 | 0.00 | 91 | 1005.3 |
| 20260510102001 | 74 | 176 | 3.0 | 9.0 | 0.00 | 0.00 | 0.00 | 91 | 1005.2 |
| 20260510101901 | 74 | 151 | 4.0 | 9.0 | 0.00 | 0.00 | 0.00 | 91 | 1005.2 |
| 20260510101801 | 74 | 154 | 4.0 | 9.0 | 0.00 | 0.00 | 0.00 | 91 | 1005.3 |
| 20260510101700 | 74 | 141 | 4.0 | 9.0 | 0.00 | 0.00 | 0.00 | 91 | 1005.3 |
| 20260510101600 | 74 | 172 | 4.0 | 9.0 | 0.00 | 0.00 | 0.00 | 91 | 1005.3 |
| 20260510101501 | 74 | 158 | 3.0 | 9.0 | 0.00 | 0.00 | 0.00 | 91 | 1005.2 |
| 20260510101401 | 74 | 158 | 2.0 | 10.0 | 0.00 | 0.00 | 0.00 | 91 | 1005.2 |
| 20260510101259 | 74 | 165 | 3.0 | 10.0 | 0.00 | 0.00 | 0.00 | 91 | 1005.3 |
| 20260510101200 | 74 | 149 | 4.0 | 10.0 | 0.00 | 0.00 | 0.00 | 91 | 1005.2 |
| 20260510101101 | 74 | 131 | 2.0 | 10.0 | 0.00 | 0.00 | 0.00 | 91 | 1005.2 |
| 20260510101000 | 74 | 142 | 2.0 | 10.0 | 0.00 | 0.00 | 0.00 | 91 | 1005.2 |
| 20260510100901 | 74 | 134 | 3.0 | 10.0 | 0.00 | 0.00 | 0.00 | 91 | 1005.3 |
| 20260510100800 | 74 | 162 | 4.0 | 10.0 | 0.00 | 0.00 | 0.00 | 91 | 1005.3 |
| 20260510100701 | 74 | 114 | 4.0 | 10.0 | 0.00 | 0.00 | 0.00 | 91 | 1005.2 |
| 20260510100601 | 74 | 169 | 4.0 | 10.0 | 0.00 | 0.00 | 0.00 | 91 | 1005.2 |
| 20260510100459 | 74 | 157 | 3.0 | 10.0 | 0.00 | 0.00 | 0.00 | 91 | 1005.3 |
| 20260510100401 | 74 | 172 | 2.0 | 5.0 | 0.00 | 0.00 | 0.00 | 91 | 1005.3 |
| 20260510100300 | 74 | 121 | 3.0 | 5.0 | 0.00 | 0.00 | 0.00 | 91 | 1005.2 |
| 20260510100159 | 74 | 148 | 2.0 | 5.0 | 0.00 | 0.00 | 0.00 | 91 | 1005.3 |
| 20260510100059 | 74 | 164 | 2.0 | 5.0 | 0.00 | 0.00 | 0.00 | 91 | 1005.2 |
| 20260510100000 | 74 | 186 | 4.0 | 6.0 | 0.00 | 0.00 | 0.00 | 92 | 1005.2 |
| 20260510095859 | 74 | 155 | 3.0 | 6.0 | 0.00 | 0.00 | 0.00 | 92 | 1005.2 |
| 20260510095759 | 74 | 155 | 2.0 | 6.0 | 0.00 | 0.00 | 0.00 | 92 | 1005.2 |
| 20260510095701 | 74 | 202 | 2.0 | 7.0 | 0.00 | 0.00 | 0.00 | 92 | 1005.1 |
| 20260510095559 | 74 | 133 | 2.0 | 7.0 | 0.00 | 0.00 | 0.00 | 92 | 1005.2 |
| 20260510095501 | 74 | 183 | 1.0 | 7.0 | 0.00 | 0.00 | 0.00 | 92 | 1005.1 |
| 20260510095400 | 74 | 185 | 2.0 | 7.0 | 0.00 | 0.00 | 0.00 | 92 | 1005.1 |
| 20260510095305 | 74 | 155 | 2.0 | 7.0 | 0.00 | 0.00 | 0.00 | 92 | 1005.1 |
| 20260510095200 | 74 | 178 | 3.0 | 7.0 | 0.00 | 0.00 | 0.00 | 92 | 1005.1 |
| 20260510095059 | 74 | 161 | 4.0 | 7.0 | 0.00 | 0.00 | 0.00 | 92 | 1005.0 |
| 20260510094959 | 74 | 159 | 3.0 | 7.0 | 0.00 | 0.00 | 0.00 | 92 | 1005.0 |
| 20260510094859 | 74 | 172 | 4.0 | 7.0 | 0.00 | 0.00 | 0.00 | 92 | 1005.1 |
| 20260510094800 | 74 | 161 | 4.0 | 7.0 | 0.00 | 0.00 | 0.00 | 92 | 1005.0 |
| 20260510094700 | 74 | 183 | 4.0 | 7.0 | 0.00 | 0.00 | 0.00 | 92 | 1005.1 |
| 20260510094601 | 74 | 161 | 3.0 | 7.0 | 0.00 | 0.00 | 0.00 | 92 | 1005.1 |
| 20260510094500 | 74 | 188 | 3.0 | 7.0 | 0.00 | 0.00 | 0.00 | 92 | 1005.0 |
| 20260510094400 | 74 | 118 | 3.0 | 7.0 | 0.00 | 0.00 | 0.00 | 92 | 1005.0 |
| 20260510094300 | 74 | 152 | 3.0 | 7.0 | 0.00 | 0.00 | 0.00 | 92 | 1005.0 |
| 20260510094159 | 74 | 155 | 3.0 | 7.0 | 0.00 | 0.00 | 0.00 | 92 | 1005.1 |
| 20260510094059 | 74 | 147 | 2.0 | 3.0 | 0.00 | 0.00 | 0.00 | 92 | 1005.1 |
| 20260510093959 | 74 | 142 | 2.0 | 6.0 | 0.00 | 0.00 | 0.00 | 92 | 1005.0 |
| 20260510093901 | 74 | 141 | 2.0 | 6.0 | 0.00 | 0.00 | 0.00 | 92 | 1005.1 |
| 20260510093800 | 74 | 141 | 2.0 | 6.0 | 0.00 | 0.00 | 0.00 | 91 | 1005.1 |
| 20260510093658 | 74 | 141 | 2.0 | 6.0 | 0.00 | 0.00 | 0.00 | 91 | 1005.1 |
| 20260510093601 | 74 | 141 | 2.0 | 6.0 | 0.00 | 0.00 | 0.00 | 91 | 1005.1 |
| 20260510093500 | 74 | 138 | 2.0 | 6.0 | 0.00 | 0.00 | 0.00 | 91 | 1005.1 |
| 20260510093401 | 74 | 138 | 1.0 | 6.0 | 0.00 | 0.00 | 0.00 | 92 | 1005.1 |
| 20260510093300 | 74 | 161 | 1.0 | 6.0 | 0.00 | 0.00 | 0.00 | 91 | 1005.1 |
| 20260510093159 | 74 | 161 | 3.0 | 7.0 | 0.00 | 0.00 | 0.00 | 91 | 1004.9 |
| 20260510093058 | 74 | 161 | 3.0 | 7.0 | 0.00 | 0.00 | 0.00 | 91 | 1004.9 |
| 20260510092959 | 74 | 135 | 2.0 | 7.0 | 0.00 | 0.00 | 0.00 | 91 | 1004.8 |
| 20260510092858 | 74 | 140 | 2.0 | 7.0 | 0.00 | 0.00 | 0.00 | 91 | 1004.9 |
| 20260510092759 | 74 | 166 | 2.0 | 7.0 | 0.00 | 0.00 | 0.00 | 91 | 1004.8 |
| 20260510092700 | 74 | 169 | 2.0 | 7.0 | 0.00 | 0.00 | 0.00 | 91 | 1004.8 |
| 20260510092558 | 74 | 168 | 2.0 | 7.0 | 0.00 | 0.00 | 0.00 | 91 | 1004.9 |
| 20260510092459 | 74 | 161 | 2.0 | 7.0 | 0.00 | 0.00 | 0.00 | 91 | 1005.0 |
| 20260510092400 | 74 | 148 | 3.0 | 7.0 | 0.00 | 0.00 | 0.00 | 91 | 1005.0 |
| 20260510092259 | 74 | 154 | 3.0 | 7.0 | 0.00 | 0.00 | 0.00 | 91 | 1004.9 |
| 20260510092159 | 74 | 161 | 3.0 | 5.0 | 0.00 | 0.00 | 0.00 | 91 | 1005.1 |
| 20260510092100 | 74 | 152 | 2.0 | 5.0 | 0.00 | 0.00 | 0.00 | 91 | 1005.0 |
| 20260510092000 | 74 | 148 | 2.0 | 5.0 | 0.00 | 0.00 | 0.00 | 91 | 1005.0 |
| 20260510091900 | 74 | 144 | 3.0 | 5.0 | 0.00 | 0.00 | 0.00 | 91 | 1005.0 |
| 20260510091756 | 74 | 142 | 2.0 | 5.0 | 0.00 | 0.00 | 0.00 | 91 | 1005.0 |
| 20260510091636 | 74 | 157 | 2.0 | 5.0 | 0.00 | 0.00 | 0.00 | 91 | 1005.1 |
| 20260510091532 | 74 | 162 | 3.0 | 5.0 | 0.00 | 0.00 | 0.00 | 91 | 1005.0 |
| 20260510091431 | 74 | 179 | 3.0 | 5.0 | 0.00 | 0.00 | 0.00 | 91 | 1005.0 |
| 20260510091332 | 74 | 176 | 2.0 | 5.0 | 0.00 | 0.00 | 0.00 | 91 | 1005.0 |
| 20260510091231 | 74 | 149 | 2.0 | 5.0 | 0.00 | 0.00 | 0.00 | 91 | 1005.1 |
| 20260510091132 | 74 | 159 | 2.0 | 5.0 | 0.00 | 0.00 | 0.00 | 91 | 1005.1 |
| 20260510091030 | 74 | 155 | 3.0 | 5.0 | 0.00 | 0.00 | 0.00 | 91 | 1005.0 |
| 20260510090927 | 74 | 161 | 3.0 | 5.0 | 0.00 | 0.00 | 0.00 | 91 | 1005.0 |
| 20260510090827 | 74 | 157 | 3.0 | 5.0 | 0.00 | 0.00 | 0.00 | 91 | 1005.1 |
| 20260510090726 | 74 | 161 | 2.0 | 5.0 | 0.00 | 0.00 | 0.00 | 91 | 1005.0 |
| 20260510090617 | 74 | 166 | 1.0 | 5.0 | 0.00 | 0.00 | 0.00 | 91 | 1005.1 |
| 20260510090517 | 74 | 166 | 2.0 | 5.0 | 0.00 | 0.00 | 0.00 | 91 | 1005.0 |
| 20260510090413 | 74 | 169 | 2.0 | 5.0 | 0.00 | 0.00 | 0.00 | 91 | 1005.0 |
| 20260510090311 | 74 | 165 | 1.0 | 5.0 | 0.00 | 0.00 | 0.00 | 91 | 1005.0 |
| 20260510090207 | 74 | 166 | 1.0 | 5.0 | 0.00 | 0.00 | 0.00 | 91 | 1005.0 |
| 20260510090104 | 74 | 166 | 1.0 | 5.0 | 0.00 | 0.00 | 0.00 | 91 | 1005.1 |
| 20260510090004 | 74 | 161 | 0.0 | 5.0 | 0.00 | 0.00 | 0.00 | 91 | 1005.1 |
| 20260510085902 | 74 | 166 | 1.0 | 5.0 | 0.00 | 0.00 | 0.00 | 91 | 1005.2 |
| 20260510085802 | 74 | 168 | 2.0 | 5.0 | 0.00 | 0.00 | 0.00 | 91 | 1005.2 |
| 20260510085702 | 74 | 186 | 2.0 | 5.0 | 0.00 | 0.00 | 0.00 | 91 | 1005.2 |
| 20260510085602 | 74 | 149 | 2.0 | 5.0 | 0.00 | 0.00 | 0.00 | 91 | 1005.2 |
| 20260510085503 | 74 | 137 | 2.0 | 5.0 | 0.00 | 0.00 | 0.00 | 91 | 1005.2 |
| 20260510085402 | 74 | 158 | 2.0 | 5.0 | 0.00 | 0.00 | 0.00 | 91 | 1005.2 |
| 20260510085305 | 74 | 165 | 1.0 | 5.0 | 0.00 | 0.00 | 0.00 | 91 | 1005.2 |
| 20260510085203 | 74 | 162 | 2.0 | 5.0 | 0.00 | 0.00 | 0.00 | 91 | 1005.2 |
| 20260510085102 | 74 | 164 | 2.0 | 5.0 | 0.00 | 0.00 | 0.00 | 91 | 1005.1 |
| 20260510085003 | 74 | 135 | 2.0 | 5.0 | 0.00 | 0.00 | 0.00 | 91 | 1005.1 |
| 20260510084904 | 74 | 135 | 2.0 | 5.0 | 0.00 | 0.00 | 0.00 | 91 | 1005.1 |
| 20260510084801 | 74 | 128 | 1.0 | 4.0 | 0.00 | 0.00 | 0.00 | 91 | 1005.1 |
| 20260510084702 | 74 | 161 | 1.0 | 4.0 | 0.00 | 0.00 | 0.00 | 91 | 1005.1 |
| 20260510084603 | 74 | 164 | 2.0 | 4.0 | 0.00 | 0.00 | 0.00 | 91 | 1005.1 |
| 20260510084505 | 74 | 168 | 2.0 | 4.0 | 0.00 | 0.00 | 0.00 | 91 | 1005.1 |
| 20260510084404 | 74 | 162 | 2.0 | 4.0 | 0.00 | 0.00 | 0.00 | 91 | 1005.0 |
| 20260510084303 | 74 | 144 | 2.0 | 4.0 | 0.00 | 0.00 | 0.00 | 91 | 1005.1 |
| 20260510084203 | 74 | 164 | 2.0 | 4.0 | 0.00 | 0.00 | 0.00 | 91 | 1005.0 |
| 20260510084103 | 74 | 152 | 1.0 | 4.0 | 0.00 | 0.00 | 0.00 | 91 | 1005.0 |
| 20260510084004 | 74 | 151 | 2.0 | 4.0 | 0.00 | 0.00 | 0.00 | 91 | 1005.0 |
| 20260510083904 | 74 | 152 | 2.0 | 4.0 | 0.00 | 0.00 | 0.00 | 91 | 1005.1 |
| 20260510083803 | 74 | 142 | 2.0 | 4.0 | 0.00 | 0.00 | 0.00 | 91 | 1005.1 |
| 20260510083704 | 74 | 147 | 2.0 | 4.0 | 0.00 | 0.00 | 0.00 | 91 | 1005.0 |
| 20260510083602 | 74 | 158 | 2.0 | 4.0 | 0.00 | 0.00 | 0.00 | 91 | 1005.1 |
| 20260510083505 | 74 | 157 | 2.0 | 4.0 | 0.00 | 0.00 | 0.00 | 91 | 1005.1 |
| 20260510083403 | 74 | 152 | 1.0 | 3.0 | 0.00 | 0.00 | 0.00 | 91 | 1005.1 |
| 20260510083304 | 74 | 148 | 1.0 | 3.0 | 0.00 | 0.00 | 0.00 | 91 | 1005.1 |
| 20260510083203 | 74 | 147 | 1.0 | 3.0 | 0.00 | 0.00 | 0.00 | 90 | 1005.1 |
| 20260510083103 | 74 | 157 | 1.0 | 3.0 | 0.00 | 0.00 | 0.00 | 90 | 1005.0 |
| 20260510083002 | 74 | 157 | 2.0 | 3.0 | 0.00 | 0.00 | 0.00 | 91 | 1005.1 |
| 20260510082904 | 74 | 151 | 2.0 | 4.0 | 0.00 | 0.00 | 0.00 | 90 | 1005.1 |
| 20260510082803 | 74 | 152 | 2.0 | 4.0 | 0.00 | 0.00 | 0.00 | 91 | 1005.1 |
| 20260510082703 | 74 | 131 | 2.0 | 5.0 | 0.00 | 0.00 | 0.00 | 91 | 1005.2 |
| 20260510082603 | 74 | 155 | 1.0 | 5.0 | 0.00 | 0.00 | 0.00 | 91 | 1005.1 |
| 20260510082503 | 74 | 164 | 2.0 | 5.0 | 0.00 | 0.00 | 0.00 | 91 | 1005.1 |
| 20260510082402 | 74 | 166 | 2.0 | 5.0 | 0.00 | 0.00 | 0.00 | 91 | 1005.2 |
| 20260510082306 | 74 | 158 | 2.0 | 5.0 | 0.00 | 0.00 | 0.00 | 90 | 1005.1 |
| 20260510082203 | 74 | 161 | 1.0 | 5.0 | 0.00 | 0.00 | 0.00 | 90 | 1005.1 |
| 20260510082104 | 74 | 166 | 2.0 | 5.0 | 0.00 | 0.00 | 0.00 | 91 | 1005.1 |
| 20260510082003 | 74 | 171 | 2.0 | 5.0 | 0.00 | 0.00 | 0.00 | 91 | 1005.1 |
| 20260510081902 | 74 | 151 | 2.0 | 5.0 | 0.00 | 0.00 | 0.00 | 90 | 1005.1 |
| 20260510081804 | 74 | 127 | 2.0 | 5.0 | 0.00 | 0.00 | 0.00 | 90 | 1005.1 |
| 20260510081702 | 74 | 147 | 1.0 | 5.0 | 0.00 | 0.00 | 0.00 | 90 | 1005.0 |
| 20260510081603 | 74 | 145 | 1.0 | 5.0 | 0.00 | 0.00 | 0.00 | 90 | 1005.1 |
| 20260510081504 | 74 | 144 | 2.0 | 5.0 | 0.00 | 0.00 | 0.00 | 90 | 1005.1 |
| 20260510081403 | 74 | 144 | 2.0 | 5.0 | 0.00 | 0.00 | 0.00 | 90 | 1005.0 |
| 20260510081303 | 74 | 138 | 3.0 | 5.0 | 0.00 | 0.00 | 0.00 | 90 | 1005.0 |
| 20260510081202 | 74 | 133 | 3.0 | 5.0 | 0.00 | 0.00 | 0.00 | 90 | 1005.1 |
| 20260510081103 | 74 | 157 | 2.0 | 4.0 | 0.00 | 0.00 | 0.00 | 90 | 1005.0 |
| 20260510081003 | 74 | 109 | 2.0 | 4.0 | 0.00 | 0.00 | 0.00 | 90 | 1005.1 |
| 20260510080904 | 74 | 151 | 1.0 | 3.0 | 0.00 | 0.00 | 0.00 | 90 | 1005.1 |
| 20260510080804 | 74 | 147 | 1.0 | 3.0 | 0.00 | 0.00 | 0.00 | 90 | 1005.1 |
| 20260510080704 | 74 | 147 | 1.0 | 3.0 | 0.00 | 0.00 | 0.00 | 90 | 1005.1 |
| 20260510080603 | 74 | 147 | 1.0 | 3.0 | 0.00 | 0.00 | 0.00 | 90 | 1005.1 |
| 20260510080505 | 74 | 144 | 1.0 | 3.0 | 0.00 | 0.00 | 0.00 | 90 | 1005.1 |
| 20260510080402 | 74 | 144 | 1.0 | 3.0 | 0.00 | 0.00 | 0.00 | 90 | 1005.1 |
| 20260510080302 | 74 | 144 | 1.0 | 3.0 | 0.00 | 0.00 | 0.00 | 90 | 1005.2 |
| 20260510080203 | 74 | 144 | 2.0 | 3.0 | 0.00 | 0.00 | 0.00 | 90 | 1005.2 |
| 20260510080103 | 74 | 144 | 2.0 | 3.0 | 0.00 | 0.00 | 0.00 | 90 | 1005.2 |
| 20260510080005 | 74 | 138 | 1.0 | 1.0 | 0.00 | 0.00 | 0.00 | 90 | 1005.2 |
| 20260510075904 | 74 | 138 | 0.0 | 1.0 | 0.00 | 0.00 | 0.00 | 90 | 1005.2 |
| 20260510075805 | 74 | 138 | 0.0 | 1.0 | 0.00 | 0.00 | 0.00 | 90 | 1005.3 |
| 20260510075704 | 74 | 138 | 0.0 | 1.0 | 0.00 | 0.00 | 0.00 | 90 | 1005.3 |
| 20260510075558 | 74 | 137 | 0.0 | 1.0 | 0.00 | 0.00 | 0.00 | 90 | 1005.3 |
| 20260510075458 | 74 | 137 | 0.0 | 1.0 | 0.00 | 0.00 | 0.00 | 90 | 1005.4 |
| 20260510075358 | 74 | 135 | 0.0 | 1.0 | 0.00 | 0.00 | 0.00 | 90 | 1005.3 |
| 20260510075258 | 74 | 135 | 0.0 | 1.0 | 0.00 | 0.00 | 0.00 | 90 | 1005.3 |
| 20260510075159 | 74 | 135 | 0.0 | 1.0 | 0.00 | 0.00 | 0.00 | 90 | 1005.3 |
| 20260510075057 | 74 | 135 | 0.0 | 1.0 | 0.00 | 0.00 | 0.00 | 90 | 1005.4 |
| 20260510074958 | 74 | 135 | 0.0 | 1.0 | 0.00 | 0.00 | 0.00 | 89 | 1005.4 |
| 20260510074858 | 74 | 135 | 0.0 | 1.0 | 0.00 | 0.00 | 0.00 | 89 | 1005.4 |
| 20260510074756 | 74 | 135 | 0.0 | 1.0 | 0.00 | 0.00 | 0.00 | 89 | 1005.4 |
| 20260510074658 | 75 | 135 | 0.0 | 1.0 | 0.00 | 0.00 | 0.00 | 89 | 1005.5 |
| 20260510074556 | 75 | 135 | 0.0 | 2.0 | 0.00 | 0.00 | 0.00 | 89 | 1005.5 |
| 20260510074458 | 75 | 135 | 0.0 | 2.0 | 0.00 | 0.00 | 0.00 | 89 | 1005.4 |
| 20260510074357 | 75 | 135 | 0.0 | 2.0 | 0.00 | 0.00 | 0.00 | 89 | 1005.4 |
| 20260510074258 | 75 | 135 | 0.0 | 2.0 | 0.00 | 0.00 | 0.00 | 89 | 1005.4 |
| 20260510074158 | 75 | 135 | 0.0 | 2.0 | 0.00 | 0.00 | 0.00 | 89 | 1005.5 |
| 20260510074056 | 75 | 135 | 0.0 | 2.0 | 0.00 | 0.00 | 0.00 | 89 | 1005.4 |
| 20260510073956 | 75 | 135 | 0.0 | 2.0 | 0.00 | 0.00 | 0.00 | 89 | 1005.4 |
| 20260510073856 | 75 | 135 | 0.0 | 2.0 | 0.00 | 0.00 | 0.00 | 89 | 1005.5 |
| 20260510073756 | 75 | 135 | 0.0 | 2.0 | 0.00 | 0.00 | 0.00 | 89 | 1005.4 |
| 20260510073656 | 75 | 135 | 1.0 | 2.0 | 0.00 | 0.00 | 0.00 | 89 | 1005.5 |
| 20260510073557 | 75 | 135 | 1.0 | 2.0 | 0.00 | 0.00 | 0.00 | 89 | 1005.4 |
| 20260510073456 | 75 | 135 | 1.0 | 3.0 | 0.00 | 0.00 | 0.00 | 89 | 1005.5 |
| 20260510073356 | 75 | 135 | 1.0 | 3.0 | 0.00 | 0.00 | 0.00 | 89 | 1005.5 |
| 20260510073257 | 75 | 135 | 0.0 | 3.0 | 0.00 | 0.00 | 0.00 | 89 | 1005.4 |
| 20260510073156 | 75 | 135 | 1.0 | 3.0 | 0.00 | 0.00 | 0.00 | 89 | 1005.4 |
| 20260510073057 | 75 | 135 | 0.0 | 3.0 | 0.00 | 0.00 | 0.00 | 89 | 1005.4 |
| 20260510072957 | 75 | 135 | 0.0 | 3.0 | 0.00 | 0.00 | 0.00 | 89 | 1005.4 |
| 20260510072857 | 75 | 135 | 0.0 | 4.0 | 0.00 | 0.00 | 0.00 | 89 | 1005.4 |
| 20260510072757 | 75 | 135 | 0.0 | 4.0 | 0.00 | 0.00 | 0.00 | 89 | 1005.4 |
| 20260510072655 | 75 | 135 | 1.0 | 4.0 | 0.00 | 0.00 | 0.00 | 89 | 1005.3 |
| 20260510072557 | 75 | 135 | 1.0 | 4.0 | 0.00 | 0.00 | 0.00 | 89 | 1005.2 |
| 20260510072457 | 75 | 135 | 1.0 | 4.0 | 0.00 | 0.00 | 0.00 | 89 | 1005.3 |
| 20260510072355 | 75 | 135 | 1.0 | 4.0 | 0.00 | 0.00 | 0.00 | 89 | 1005.3 |
| 20260510072257 | 75 | 135 | 2.0 | 4.0 | 0.00 | 0.00 | 0.00 | 89 | 1005.2 |
| 20260510072155 | 75 | 110 | 1.0 | 4.0 | 0.00 | 0.00 | 0.00 | 89 | 1005.3 |
| 20260510072056 | 75 | 111 | 1.0 | 4.0 | 0.00 | 0.00 | 0.00 | 89 | 1005.3 |
| 20260510071956 | 75 | 111 | 2.0 | 4.0 | 0.00 | 0.00 | 0.00 | 89 | 1005.4 |
| 20260510071856 | 75 | 114 | 2.0 | 4.0 | 0.00 | 0.00 | 0.00 | 89 | 1005.3 |
| 20260510071757 | 75 | 114 | 2.0 | 4.0 | 0.00 | 0.00 | 0.00 | 89 | 1005.2 |
| 20260510071656 | 75 | 113 | 3.0 | 4.0 | 0.00 | 0.00 | 0.00 | 89 | 1005.2 |
| 20260510071557 | 75 | 103 | 2.0 | 4.0 | 0.00 | 0.00 | 0.00 | 89 | 1005.3 |
| 20260510071456 | 75 | 131 | 1.0 | 4.0 | 0.00 | 0.00 | 0.00 | 89 | 1005.3 |
| 20260510071356 | 75 | 133 | 1.0 | 4.0 | 0.00 | 0.00 | 0.00 | 89 | 1005.3 |
| 20260510071257 | 74 | 135 | 1.0 | 4.0 | 0.00 | 0.00 | 0.00 | 88 | 1005.2 |
| 20260510071157 | 75 | 135 | 2.0 | 4.0 | 0.00 | 0.00 | 0.00 | 88 | 1005.3 |
| 20260510071056 | 75 | 135 | 2.0 | 4.0 | 0.00 | 0.00 | 0.00 | 88 | 1005.2 |
| 20260510070957 | 74 | 130 | 1.0 | 4.0 | 0.00 | 0.00 | 0.00 | 88 | 1005.2 |
| 20260510070855 | 75 | 130 | 1.0 | 4.0 | 0.00 | 0.00 | 0.00 | 88 | 1005.2 |
| 20260510070757 | 75 | 130 | 1.0 | 4.0 | 0.00 | 0.00 | 0.00 | 88 | 1005.3 |
| 20260510070657 | 75 | 131 | 1.0 | 4.0 | 0.00 | 0.00 | 0.00 | 88 | 1005.2 |
| 20260510070556 | 75 | 131 | 1.0 | 4.0 | 0.00 | 0.00 | 0.00 | 88 | 1005.2 |
| 20260510070456 | 75 | 130 | 1.0 | 4.0 | 0.00 | 0.00 | 0.00 | 88 | 1005.3 |
| 20260510070355 | 75 | 140 | 1.0 | 4.0 | 0.00 | 0.00 | 0.00 | 88 | 1005.2 |
| 20260510070256 | 75 | 113 | 2.0 | 4.0 | 0.00 | 0.00 | 0.00 | 88 | 1005.3 |
| 20260510070157 | 75 | 113 | 2.0 | 4.0 | 0.00 | 0.00 | 0.00 | 88 | 1005.3 |
| 20260510070057 | 75 | 145 | 1.0 | 3.0 | 0.00 | 0.00 | 0.00 | 88 | 1005.2 |
| 20260510065956 | 75 | 137 | 2.0 | 3.0 | 0.00 | 0.00 | 0.00 | 88 | 1005.2 |
| 20260510065858 | 75 | 125 | 1.0 | 6.0 | 0.00 | 0.00 | 0.00 | 88 | 1005.3 |
| 20260510065756 | 75 | 133 | 2.0 | 6.0 | 0.00 | 0.00 | 0.00 | 88 | 1005.2 |
| 20260510065656 | 75 | 133 | 2.0 | 6.0 | 0.00 | 0.00 | 0.00 | 88 | 1005.3 |
| 20260510065556 | 75 | 134 | 1.0 | 6.0 | 0.00 | 0.00 | 0.00 | 88 | 1005.2 |
| 20260510065458 | 75 | 131 | 1.0 | 6.0 | 0.00 | 0.00 | 0.00 | 88 | 1005.3 |
| 20260510065355 | 75 | 131 | 1.0 | 6.0 | 0.00 | 0.00 | 0.00 | 88 | 1005.4 |
| 20260510065256 | 75 | 131 | 2.0 | 6.0 | 0.00 | 0.00 | 0.00 | 88 | 1005.3 |
| 20260510065155 | 75 | 107 | 1.0 | 6.0 | 0.00 | 0.00 | 0.00 | 88 | 1005.4 |
| 20260510065057 | 75 | 106 | 3.0 | 6.0 | 0.00 | 0.00 | 0.00 | 88 | 1005.4 |
| 20260510064956 | 75 | 106 | 3.0 | 6.0 | 0.00 | 0.00 | 0.00 | 88 | 1005.4 |
| 20260510064855 | 75 | 104 | 2.0 | 5.0 | 0.00 | 0.00 | 0.00 | 88 | 1005.4 |
| 20260510064756 | 75 | 110 | 2.0 | 5.0 | 0.00 | 0.00 | 0.00 | 88 | 1005.3 |
| 20260510064656 | 75 | 107 | 3.0 | 5.0 | 0.00 | 0.00 | 0.00 | 88 | 1005.4 |
| 20260510064555 | 75 | 104 | 3.0 | 5.0 | 0.00 | 0.00 | 0.00 | 88 | 1005.3 |
| 20260510064455 | 75 | 102 | 2.0 | 4.0 | 0.00 | 0.00 | 0.00 | 88 | 1005.4 |
| 20260510064355 | 75 | 111 | 2.0 | 5.0 | 0.00 | 0.00 | 0.00 | 88 | 1005.3 |
| 20260510064256 | 75 | 111 | 2.0 | 5.0 | 0.00 | 0.00 | 0.00 | 88 | 1005.3 |
| 20260510064155 | 75 | 107 | 1.0 | 5.0 | 0.00 | 0.00 | 0.00 | 88 | 1005.3 |
| 20260510064055 | 75 | 124 | 1.0 | 5.0 | 0.00 | 0.00 | 0.00 | 88 | 1005.3 |
| 20260510063955 | 75 | 142 | 1.0 | 5.0 | 0.00 | 0.00 | 0.00 | 88 | 1005.3 |
| 20260510063855 | 75 | 164 | 1.0 | 5.0 | 0.00 | 0.00 | 0.00 | 88 | 1005.3 |
| 20260510063756 | 75 | 164 | 1.0 | 5.0 | 0.00 | 0.00 | 0.00 | 88 | 1005.3 |
| 20260510063656 | 75 | 165 | 1.0 | 5.0 | 0.00 | 0.00 | 0.00 | 88 | 1005.3 |
| 20260510063555 | 75 | 107 | 3.0 | 5.0 | 0.00 | 0.00 | 0.00 | 88 | 1005.3 |
| 20260510063455 | 75 | 107 | 3.0 | 5.0 | 0.00 | 0.00 | 0.00 | 88 | 1005.2 |
| 20260510063354 | 75 | 109 | 2.0 | 5.0 | 0.00 | 0.00 | 0.00 | 88 | 1005.3 |
| 20260510063256 | 75 | 103 | 2.0 | 5.0 | 0.00 | 0.00 | 0.00 | 88 | 1005.2 |
| 20260510063155 | 75 | 127 | 2.0 | 4.0 | 0.00 | 0.00 | 0.00 | 88 | 1005.2 |
| 20260510063055 | 75 | 121 | 2.0 | 4.0 | 0.00 | 0.00 | 0.00 | 88 | 1005.3 |
| 20260510062955 | 75 | 134 | 2.0 | 4.0 | 0.00 | 0.00 | 0.00 | 88 | 1005.3 |
| 20260510062855 | 75 | 124 | 2.0 | 5.0 | 0.00 | 0.00 | 0.00 | 88 | 1005.3 |
| 20260510062754 | 75 | 124 | 2.0 | 5.0 | 0.00 | 0.00 | 0.00 | 88 | 1005.3 |
| 20260510062654 | 75 | 110 | 2.0 | 5.0 | 0.00 | 0.00 | 0.00 | 88 | 1005.3 |
| 20260510062555 | 75 | 124 | 2.0 | 5.0 | 0.00 | 0.00 | 0.00 | 88 | 1005.3 |
| 20260510062456 | 75 | 173 | 1.0 | 5.0 | 0.00 | 0.00 | 0.00 | 88 | 1005.3 |
| 20260510062355 | 75 | 152 | 1.0 | 5.0 | 0.00 | 0.00 | 0.00 | 88 | 1005.2 |
| 20260510062255 | 75 | 121 | 1.0 | 5.0 | 0.00 | 0.00 | 0.00 | 88 | 1005.2 |
| 20260510062155 | 75 | 116 | 2.0 | 5.0 | 0.00 | 0.00 | 0.00 | 88 | 1005.2 |
| 20260510062054 | 75 | 152 | 3.0 | 5.0 | 0.00 | 0.00 | 0.00 | 88 | 1005.3 |
| 20260510061955 | 75 | 140 | 3.0 | 5.0 | 0.00 | 0.00 | 0.00 | 88 | 1005.2 |
| 20260510061854 | 75 | 142 | 2.0 | 5.0 | 0.00 | 0.00 | 0.00 | 88 | 1005.3 |
| 20260510061756 | 75 | 118 | 2.0 | 5.0 | 0.00 | 0.00 | 0.00 | 88 | 1005.3 |
| 20260510061654 | 75 | 124 | 2.0 | 5.0 | 0.00 | 0.00 | 0.00 | 88 | 1005.3 |
| 20260510061555 | 75 | 118 | 3.0 | 5.0 | 0.00 | 0.00 | 0.00 | 88 | 1005.2 |
| 20260510061457 | 75 | 116 | 3.0 | 6.0 | 0.00 | 0.00 | 0.00 | 88 | 1005.3 |
| 20260510061354 | 75 | 121 | 3.0 | 6.0 | 0.00 | 0.00 | 0.00 | 88 | 1005.2 |
| 20260510061255 | 75 | 117 | 2.0 | 6.0 | 0.00 | 0.00 | 0.00 | 88 | 1005.3 |
| 20260510061153 | 75 | 116 | 2.0 | 6.0 | 0.00 | 0.00 | 0.00 | 88 | 1005.3 |
| 20260510061054 | 75 | 118 | 3.0 | 6.0 | 0.00 | 0.00 | 0.00 | 88 | 1005.4 |
| 20260510060954 | 75 | 124 | 2.0 | 6.0 | 0.00 | 0.00 | 0.00 | 87 | 1005.3 |
| 20260510060854 | 75 | 148 | 2.0 | 6.0 | 0.00 | 0.00 | 0.00 | 87 | 1005.2 |
| 20260510060754 | 75 | 149 | 2.0 | 6.0 | 0.00 | 0.00 | 0.00 | 87 | 1005.2 |
| 20260510060653 | 75 | 142 | 2.0 | 6.0 | 0.00 | 0.00 | 0.00 | 87 | 1005.2 |
| 20260510060555 | 75 | 134 | 2.0 | 6.0 | 0.00 | 0.00 | 0.00 | 87 | 1005.3 |
| 20260510060454 | 75 | 145 | 2.0 | 6.0 | 0.00 | 0.00 | 0.00 | 87 | 1005.3 |
| 20260510060355 | 75 | 137 | 2.0 | 6.0 | 0.00 | 0.00 | 0.00 | 87 | 1005.3 |
| 20260510060255 | 75 | 102 | 2.0 | 6.0 | 0.00 | 0.00 | 0.00 | 87 | 1005.4 |
| 20260510060154 | 75 | 162 | 2.0 | 5.0 | 0.00 | 0.00 | 0.00 | 87 | 1005.4 |
| 20260510060054 | 75 | 166 | 2.0 | 5.0 | 0.00 | 0.00 | 0.00 | 87 | 1005.3 |
| 20260510055954 | 75 | 130 | 2.0 | 5.0 | 0.00 | 0.00 | 0.00 | 87 | 1005.4 |
| 20260510055856 | 75 | 134 | 1.0 | 5.0 | 0.00 | 0.00 | 0.00 | 87 | 1005.4 |
| 20260510055754 | 75 | 137 | 1.0 | 5.0 | 0.00 | 0.00 | 0.00 | 87 | 1005.4 |
| 20260510055655 | 75 | 118 | 1.0 | 5.0 | 0.00 | 0.00 | 0.00 | 87 | 1005.4 |
| 20260510055555 | 75 | 111 | 1.0 | 5.0 | 0.00 | 0.00 | 0.00 | 87 | 1005.5 |
| 20260510055454 | 75 | 113 | 0.0 | 6.0 | 0.00 | 0.00 | 0.00 | 86 | 1005.5 |
| 20260510055353 | 75 | 104 | 1.0 | 6.0 | 0.00 | 0.00 | 0.00 | 86 | 1005.5 |
| 20260510055254 | 75 | 104 | 2.0 | 6.0 | 0.00 | 0.00 | 0.00 | 86 | 1005.5 |
| 20260510055155 | 75 | 111 | 1.0 | 6.0 | 0.00 | 0.00 | 0.00 | 86 | 1005.5 |
| 20260510055053 | 75 | 111 | 1.0 | 6.0 | 0.00 | 0.00 | 0.00 | 86 | 1005.5 |
| 20260510054954 | 75 | 113 | 2.0 | 6.0 | 0.00 | 0.00 | 0.00 | 86 | 1005.6 |
| 20260510054855 | 75 | 111 | 3.0 | 6.0 | 0.00 | 0.00 | 0.00 | 86 | 1005.6 |
| 20260510054754 | 75 | 109 | 3.0 | 6.0 | 0.00 | 0.00 | 0.00 | 86 | 1005.6 |
| 20260510054653 | 75 | 109 | 4.0 | 6.0 | 0.00 | 0.00 | 0.00 | 86 | 1005.7 |
| 20260510054553 | 75 | 110 | 4.0 | 6.0 | 0.00 | 0.00 | 0.00 | 86 | 1005.6 |
| 20260510054454 | 75 | 103 | 4.0 | 5.0 | 0.00 | 0.00 | 0.00 | 86 | 1005.6 |
| 20260510054353 | 75 | 104 | 3.0 | 5.0 | 0.00 | 0.00 | 0.00 | 86 | 1005.6 |
| 20260510054255 | 75 | 117 | 1.0 | 5.0 | 0.00 | 0.00 | 0.00 | 86 | 1005.6 |
| 20260510054155 | 75 | 141 | 1.0 | 5.0 | 0.00 | 0.00 | 0.00 | 86 | 1005.5 |
| 20260510054054 | 75 | 142 | 1.0 | 5.0 | 0.00 | 0.00 | 0.00 | 86 | 1005.4 |
| 20260510053955 | 75 | 144 | 1.0 | 6.0 | 0.00 | 0.00 | 0.00 | 86 | 1005.4 |
| 20260510053853 | 75 | 128 | 1.0 | 6.0 | 0.00 | 0.00 | 0.00 | 86 | 1005.5 |
| 20260510053753 | 75 | 128 | 0.0 | 6.0 | 0.00 | 0.00 | 0.00 | 86 | 1005.5 |
| 20260510053654 | 75 | 127 | 2.0 | 6.0 | 0.00 | 0.00 | 0.00 | 86 | 1005.5 |
| 20260510053553 | 76 | 121 | 2.0 | 6.0 | 0.00 | 0.00 | 0.00 | 86 | 1005.5 |
| 20260510053453 | 76 | 124 | 2.0 | 6.0 | 0.00 | 0.00 | 0.00 | 85 | 1005.5 |
| 20260510053353 | 76 | 133 | 2.0 | 6.0 | 0.00 | 0.00 | 0.00 | 85 | 1005.5 |
| 20260510053254 | 76 | 118 | 3.0 | 6.0 | 0.00 | 0.00 | 0.00 | 85 | 1005.7 |
| 20260510053154 | 76 | 123 | 4.0 | 6.0 | 0.00 | 0.00 | 0.00 | 85 | 1005.5 |
| 20260510053054 | 76 | 107 | 3.0 | 6.0 | 0.00 | 0.00 | 0.00 | 85 | 1005.6 |
| 20260510052954 | 76 | 133 | 2.0 | 6.0 | 0.00 | 0.00 | 0.00 | 85 | 1005.5 |
| 20260510052853 | 76 | 137 | 1.0 | 6.0 | 0.00 | 0.00 | 0.00 | 85 | 1005.5 |
| 20260510052755 | 76 | 138 | 1.0 | 6.0 | 0.00 | 0.00 | 0.00 | 85 | 1005.5 |
| 20260510052653 | 76 | 130 | 1.0 | 6.0 | 0.00 | 0.00 | 0.00 | 85 | 1005.6 |
| 20260510052553 | 76 | 130 | 2.0 | 6.0 | 0.00 | 0.00 | 0.00 | 85 | 1005.6 |
| 20260510052454 | 76 | 147 | 2.0 | 7.0 | 0.00 | 0.00 | 0.00 | 85 | 1005.6 |
| 20260510052353 | 76 | 130 | 2.0 | 7.0 | 0.00 | 0.00 | 0.00 | 85 | 1005.6 |
| 20260510052252 | 76 | 117 | 2.0 | 7.0 | 0.00 | 0.00 | 0.00 | 85 | 1005.7 |
| 20260510052155 | 76 | 110 | 3.0 | 7.0 | 0.00 | 0.00 | 0.00 | 85 | 1005.6 |
| 20260510052053 | 76 | 110 | 4.0 | 7.0 | 0.00 | 0.00 | 0.00 | 84 | 1005.7 |
| 20260510051954 | 76 | 109 | 3.0 | 7.0 | 0.00 | 0.00 | 0.00 | 84 | 1005.7 |
| 20260510051852 | 76 | 113 | 4.0 | 7.0 | 0.00 | 0.00 | 0.00 | 84 | 1005.8 |
| 20260510051754 | 76 | 111 | 4.0 | 7.0 | 0.00 | 0.00 | 0.00 | 84 | 1005.7 |
| 20260510051653 | 76 | 113 | 4.0 | 7.0 | 0.00 | 0.00 | 0.00 | 84 | 1005.7 |
| 20260510051554 | 76 | 123 | 4.0 | 7.0 | 0.00 | 0.00 | 0.00 | 84 | 1005.7 |
| 20260510051453 | 76 | 117 | 4.0 | 7.0 | 0.00 | 0.00 | 0.00 | 84 | 1005.7 |
| 20260510051354 | 76 | 120 | 4.0 | 7.0 | 0.00 | 0.00 | 0.00 | 84 | 1005.7 |
| 20260510051254 | 76 | 109 | 5.0 | 7.0 | 0.00 | 0.00 | 0.00 | 84 | 1005.7 |
| 20260510051155 | 76 | 97 | 4.0 | 7.0 | 0.00 | 0.00 | 0.00 | 84 | 1005.6 |
| 20260510051055 | 76 | 111 | 4.0 | 10.0 | 0.00 | 0.00 | 0.00 | 84 | 1005.6 |
| 20260510050953 | 76 | 103 | 4.0 | 10.0 | 0.00 | 0.00 | 0.00 | 84 | 1005.6 |
| 20260510050854 | 76 | 107 | 3.0 | 10.0 | 0.00 | 0.00 | 0.00 | 84 | 1005.6 |
| 20260510050753 | 76 | 111 | 3.0 | 10.0 | 0.00 | 0.00 | 0.00 | 84 | 1005.6 |
| 20260510050652 | 76 | 111 | 4.0 | 10.0 | 0.00 | 0.00 | 0.00 | 84 | 1005.6 |
| 20260510050554 | 76 | 114 | 4.0 | 10.0 | 0.00 | 0.00 | 0.00 | 84 | 1005.7 |
| 20260510050454 | 76 | 104 | 4.0 | 10.0 | 0.00 | 0.00 | 0.00 | 84 | 1005.7 |
| 20260510050353 | 76 | 110 | 4.0 | 10.0 | 0.00 | 0.00 | 0.00 | 84 | 1005.6 |
| 20260510050252 | 76 | 110 | 5.0 | 10.0 | 0.00 | 0.00 | 0.00 | 84 | 1005.7 |
| 20260510050152 | 76 | 117 | 6.0 | 10.0 | 0.00 | 0.00 | 0.00 | 83 | 1005.7 |
| 20260510050052 | 76 | 148 | 5.0 | 9.0 | 0.00 | 0.00 | 0.00 | 83 | 1005.6 |
| 20260510045953 | 76 | 138 | 3.0 | 9.0 | 0.00 | 0.00 | 0.00 | 83 | 1005.6 |
| 20260510045853 | 76 | 135 | 3.0 | 9.0 | 0.00 | 0.00 | 0.00 | 83 | 1005.5 |
| 20260510045753 | 76 | 127 | 4.0 | 9.0 | 0.00 | 0.00 | 0.00 | 83 | 1005.6 |
| 20260510045652 | 76 | 130 | 4.0 | 9.0 | 0.00 | 0.00 | 0.00 | 83 | 1005.5 |
| 20260510045554 | 76 | 131 | 4.0 | 9.0 | 0.00 | 0.00 | 0.00 | 83 | 1005.5 |
| 20260510045454 | 76 | 109 | 5.0 | 9.0 | 0.00 | 0.00 | 0.00 | 83 | 1005.5 |
| 20260510045354 | 76 | 145 | 5.0 | 9.0 | 0.00 | 0.00 | 0.00 | 83 | 1005.4 |
| 20260510045253 | 76 | 138 | 3.0 | 7.0 | 0.00 | 0.00 | 0.00 | 83 | 1005.4 |
| 20260510045153 | 76 | 116 | 2.0 | 7.0 | 0.00 | 0.00 | 0.00 | 83 | 1005.4 |
| 20260510045054 | 77 | 175 | 1.0 | 7.0 | 0.00 | 0.00 | 0.00 | 82 | 1005.4 |
| 20260510044953 | 77 | 188 | 2.0 | 9.0 | 0.00 | 0.00 | 0.00 | 82 | 1005.5 |
| 20260510044852 | 77 | 138 | 4.0 | 9.0 | 0.00 | 0.00 | 0.00 | 82 | 1005.5 |
| 20260510044752 | 77 | 130 | 4.0 | 9.0 | 0.00 | 0.00 | 0.00 | 82 | 1005.5 |
| 20260510044652 | 77 | 120 | 5.0 | 9.0 | 0.00 | 0.00 | 0.00 | 81 | 1005.6 |
| 20260510044553 | 77 | 120 | 5.0 | 9.0 | 0.00 | 0.00 | 0.00 | 81 | 1005.5 |
| 20260510044454 | 77 | 120 | 5.0 | 9.0 | 0.00 | 0.00 | 0.00 | 81 | 1005.5 |
| 20260510044352 | 77 | 113 | 5.0 | 9.0 | 0.00 | 0.00 | 0.00 | 81 | 1005.6 |
| 20260510044253 | 77 | 106 | 5.0 | 9.0 | 0.00 | 0.00 | 0.00 | 81 | 1005.6 |
| 20260510044152 | 77 | 113 | 6.0 | 9.0 | 0.00 | 0.00 | 0.00 | 81 | 1005.5 |
| 20260510044053 | 77 | 106 | 6.0 | 9.0 | 0.00 | 0.00 | 0.00 | 81 | 1005.6 |
| 20260510043953 | 77 | 106 | 5.0 | 9.0 | 0.00 | 0.00 | 0.00 | 81 | 1005.6 |
| 20260510043853 | 77 | 109 | 5.0 | 9.0 | 0.00 | 0.00 | 0.00 | 81 | 1005.6 |
| 20260510043752 | 77 | 116 | 5.0 | 9.0 | 0.00 | 0.00 | 0.00 | 80 | 1005.6 |
| 20260510043652 | 77 | 121 | 6.0 | 9.0 | 0.00 | 0.00 | 0.00 | 80 | 1005.6 |
| 20260510043553 | 77 | 113 | 6.0 | 9.0 | 0.00 | 0.00 | 0.00 | 80 | 1005.7 |
| 20260510043452 | 77 | 111 | 5.0 | 9.0 | 0.00 | 0.00 | 0.00 | 80 | 1005.7 |
| 20260510043353 | 77 | 106 | 6.0 | 9.0 | 0.00 | 0.00 | 0.00 | 79 | 1005.6 |
| 20260510043254 | 77 | 111 | 6.0 | 9.0 | 0.00 | 0.00 | 0.00 | 79 | 1005.7 |
| 20260510043151 | 77 | 103 | 6.0 | 9.0 | 0.00 | 0.00 | 0.00 | 79 | 1005.6 |
| 20260510043052 | 77 | 113 | 4.0 | 7.0 | 0.00 | 0.00 | 0.00 | 79 | 1005.6 |
| 20260510042952 | 77 | 109 | 4.0 | 7.0 | 0.00 | 0.00 | 0.00 | 79 | 1005.7 |
| 20260510042852 | 77 | 113 | 5.0 | 7.0 | 0.00 | 0.00 | 0.00 | 79 | 1005.6 |
| 20260510042753 | 77 | 103 | 6.0 | 7.0 | 0.00 | 0.00 | 0.00 | 79 | 1005.7 |
| 20260510042654 | 77 | 120 | 5.0 | 7.0 | 0.00 | 0.00 | 0.00 | 79 | 1005.7 |
| 20260510042552 | 77 | 110 | 5.0 | 7.0 | 0.00 | 0.00 | 0.00 | 78 | 1005.7 |
| 20260510042452 | 77 | 110 | 5.0 | 7.0 | 0.00 | 0.00 | 0.00 | 78 | 1005.7 |
| 20260510042352 | 77 | 106 | 4.0 | 7.0 | 0.00 | 0.00 | 0.00 | 78 | 1005.7 |
| 20260510042252 | 77 | 118 | 4.0 | 7.0 | 0.00 | 0.00 | 0.00 | 78 | 1005.7 |
| 20260510042153 | 77 | 110 | 5.0 | 7.0 | 0.00 | 0.00 | 0.00 | 78 | 1005.7 |
| 20260510042051 | 77 | 114 | 4.0 | 7.0 | 0.00 | 0.00 | 0.00 | 78 | 1005.6 |
| 20260510041953 | 77 | 109 | 4.0 | 7.0 | 0.00 | 0.00 | 0.00 | 77 | 1005.7 |
| 20260510041853 | 77 | 109 | 4.0 | 7.0 | 0.00 | 0.00 | 0.00 | 77 | 1005.7 |
| 20260510041752 | 77 | 113 | 3.0 | 5.0 | 0.00 | 0.00 | 0.00 | 77 | 1005.7 |
| 20260510041653 | 78 | 110 | 4.0 | 6.0 | 0.00 | 0.00 | 0.00 | 77 | 1005.7 |
| 20260510041552 | 77 | 103 | 4.0 | 6.0 | 0.00 | 0.00 | 0.00 | 77 | 1005.8 |
| 20260510041452 | 78 | 106 | 3.0 | 6.0 | 0.00 | 0.00 | 0.00 | 77 | 1005.8 |
| 20260510041352 | 78 | 103 | 4.0 | 6.0 | 0.00 | 0.00 | 0.00 | 76 | 1005.8 |
| 20260510041252 | 78 | 100 | 4.0 | 6.0 | 0.00 | 0.00 | 0.00 | 76 | 1005.8 |
| 20260510041151 | 78 | 82 | 4.0 | 6.0 | 0.00 | 0.00 | 0.00 | 76 | 1005.8 |
| 20260510041052 | 78 | 116 | 4.0 | 7.0 | 0.00 | 0.00 | 0.00 | 76 | 1005.9 |
| 20260510040951 | 78 | 89 | 4.0 | 7.0 | 0.00 | 0.00 | 0.00 | 76 | 1005.8 |
| 20260510040851 | 78 | 103 | 4.0 | 9.0 | 0.00 | 0.00 | 0.00 | 76 | 1005.7 |
| 20260510040752 | 78 | 103 | 5.0 | 9.0 | 0.00 | 0.00 | 0.00 | 76 | 1005.7 |
| 20260510040651 | 78 | 104 | 5.0 | 9.0 | 0.00 | 0.00 | 0.00 | 76 | 1005.7 |
| 20260510040552 | 78 | 113 | 4.0 | 9.0 | 0.00 | 0.00 | 0.00 | 76 | 1005.7 |
| 20260510040451 | 78 | 116 | 5.0 | 9.0 | 0.00 | 0.00 | 0.00 | 76 | 1005.6 |
| 20260510040353 | 78 | 111 | 5.0 | 9.0 | 0.00 | 0.00 | 0.00 | 76 | 1005.7 |
| 20260510040252 | 78 | 114 | 5.0 | 9.0 | 0.00 | 0.00 | 0.00 | 76 | 1005.7 |
| 20260510040151 | 78 | 109 | 5.0 | 9.0 | 0.00 | 0.00 | 0.00 | 75 | 1005.7 |
| 20260510040053 | 78 | 113 | 6.0 | 9.0 | 0.00 | 0.00 | 0.00 | 75 | 1005.7 |
| 20260510035951 | 78 | 104 | 6.0 | 9.0 | 0.00 | 0.00 | 0.00 | 75 | 1005.6 |
| 20260510035851 | 78 | 120 | 5.0 | 10.0 | 0.00 | 0.00 | 0.00 | 75 | 1005.6 |
| 20260510035752 | 78 | 118 | 4.0 | 10.0 | 0.00 | 0.00 | 0.00 | 75 | 1005.6 |
| 20260510035651 | 78 | 113 | 5.0 | 10.0 | 0.00 | 0.00 | 0.00 | 75 | 1005.7 |
| 20260510035552 | 78 | 131 | 5.0 | 11.0 | 0.00 | 0.00 | 0.00 | 75 | 1005.7 |
| 20260510035452 | 78 | 117 | 5.0 | 11.0 | 0.00 | 0.00 | 0.00 | 75 | 1005.6 |
| 20260510035353 | 78 | 109 | 5.0 | 11.0 | 0.00 | 0.00 | 0.00 | 75 | 1005.7 |
| 20260510035250 | 78 | 125 | 6.0 | 11.0 | 0.00 | 0.00 | 0.00 | 75 | 1005.7 |
| 20260510035153 | 78 | 103 | 7.0 | 11.0 | 0.00 | 0.00 | 0.00 | 75 | 1005.7 |
| 20260510035052 | 78 | 125 | 6.0 | 11.0 | 0.00 | 0.00 | 0.00 | 75 | 1005.7 |
| 20260510034951 | 78 | 114 | 6.0 | 11.0 | 0.00 | 0.00 | 0.00 | 75 | 1005.7 |
| 20260510034851 | 78 | 106 | 6.0 | 11.0 | 0.00 | 0.00 | 0.00 | 75 | 1005.7 |
| 20260510034751 | 78 | 121 | 7.0 | 11.0 | 0.00 | 0.00 | 0.00 | 75 | 1005.7 |
| 20260510034654 | 78 | 104 | 6.0 | 11.0 | 0.00 | 0.00 | 0.00 | 75 | 1005.7 |
| 20260510034550 | 78 | 102 | 6.0 | 11.0 | 0.00 | 0.00 | 0.00 | 75 | 1005.6 |
| 20260510034451 | 78 | 113 | 7.0 | 11.0 | 0.00 | 0.00 | 0.00 | 75 | 1005.6 |
| 20260510034352 | 78 | 109 | 7.0 | 11.0 | 0.00 | 0.00 | 0.00 | 75 | 1005.6 |
| 20260510034252 | 78 | 114 | 8.0 | 11.0 | 0.00 | 0.00 | 0.00 | 75 | 1005.7 |
| 20260510034153 | 78 | 103 | 8.0 | 11.0 | 0.00 | 0.00 | 0.00 | 75 | 1005.7 |
| 20260510034053 | 78 | 104 | 7.0 | 11.0 | 0.00 | 0.00 | 0.00 | 75 | 1005.7 |
| 20260510033953 | 78 | 94 | 7.0 | 11.0 | 0.00 | 0.00 | 0.00 | 74 | 1005.7 |
| 20260510033852 | 77 | 113 | 6.0 | 11.0 | 0.00 | 0.00 | 0.00 | 74 | 1005.7 |
| 20260510033751 | 77 | 96 | 7.0 | 11.0 | 0.00 | 0.00 | 0.00 | 74 | 1005.7 |
| 20260510033652 | 78 | 121 | 7.0 | 11.0 | 0.00 | 0.00 | 0.00 | 74 | 1005.6 |
| 20260510033551 | 78 | 107 | 6.0 | 11.0 | 0.00 | 0.00 | 0.00 | 74 | 1005.5 |
| 20260510033452 | 77 | 110 | 5.0 | 10.0 | 0.00 | 0.00 | 0.00 | 74 | 1005.6 |
| 20260510033350 | 77 | 109 | 5.0 | 10.0 | 0.00 | 0.00 | 0.00 | 74 | 1005.6 |
| 20260510033251 | 77 | 114 | 6.0 | 10.0 | 0.00 | 0.00 | 0.00 | 74 | 1005.6 |
| 20260510033150 | 77 | 103 | 6.0 | 10.0 | 0.00 | 0.00 | 0.00 | 74 | 1005.7 |
| 20260510033052 | 77 | 114 | 6.0 | 10.0 | 0.00 | 0.00 | 0.00 | 74 | 1005.8 |
| 20260510032950 | 77 | 92 | 6.0 | 10.0 | 0.00 | 0.00 | 0.00 | 74 | 1005.8 |
| 20260510032851 | 77 | 114 | 6.0 | 10.0 | 0.00 | 0.00 | 0.00 | 74 | 1005.8 |
| 20260510032750 | 77 | 93 | 6.0 | 10.0 | 0.00 | 0.00 | 0.00 | 74 | 1006.0 |
| 20260510032652 | 77 | 82 | 7.0 | 10.0 | 0.00 | 0.00 | 0.00 | 74 | 1005.9 |
| 20260510032551 | 77 | 114 | 6.0 | 10.0 | 0.00 | 0.00 | 0.00 | 74 | 1005.9 |
| 20260510032451 | 77 | 90 | 6.0 | 9.0 | 0.00 | 0.00 | 0.00 | 74 | 1006.0 |
| 20260510032352 | 77 | 107 | 5.0 | 9.0 | 0.00 | 0.00 | 0.00 | 74 | 1005.9 |
| 20260510032252 | 77 | 90 | 5.0 | 10.0 | 0.00 | 0.00 | 0.00 | 74 | 1005.9 |
| 20260510032150 | 77 | 120 | 6.0 | 11.0 | 0.00 | 0.00 | 0.00 | 74 | 1005.9 |
| 20260510032050 | 77 | 100 | 6.0 | 11.0 | 0.00 | 0.00 | 0.00 | 74 | 1005.8 |
| 20260510031952 | 77 | 96 | 6.0 | 11.0 | 0.00 | 0.00 | 0.00 | 75 | 1005.8 |
| 20260510031850 | 76 | 106 | 6.0 | 11.0 | 0.00 | 0.00 | 0.00 | 75 | 1005.8 |
| 20260510031751 | 76 | 93 | 6.0 | 11.0 | 0.00 | 0.00 | 0.00 | 75 | 1005.9 |
| 20260510031652 | 76 | 99 | 6.0 | 11.0 | 0.00 | 0.00 | 0.00 | 75 | 1005.8 |
| 20260510031551 | 76 | 85 | 6.0 | 11.0 | 0.00 | 0.00 | 0.00 | 75 | 1005.8 |
| 20260510031451 | 76 | 94 | 6.0 | 11.0 | 0.00 | 0.00 | 0.00 | 75 | 1005.8 |
| 20260510031352 | 76 | 103 | 7.0 | 11.0 | 0.00 | 0.00 | 0.00 | 75 | 1005.8 |
| 20260510031252 | 76 | 99 | 7.0 | 11.0 | 0.00 | 0.00 | 0.00 | 75 | 1005.8 |
| 20260510031149 | 76 | 111 | 7.0 | 11.0 | 0.00 | 0.00 | 0.00 | 75 | 1005.8 |
| 20260510031050 | 76 | 102 | 6.0 | 11.0 | 0.00 | 0.00 | 0.00 | 75 | 1005.8 |
| 20260510030950 | 76 | 78 | 6.0 | 9.0 | 0.00 | 0.00 | 0.00 | 75 | 1005.8 |
| 20260510030852 | 76 | 90 | 5.0 | 7.0 | 0.00 | 0.00 | 0.00 | 75 | 1005.7 |
| 20260510030750 | 76 | 97 | 4.0 | 6.0 | 0.00 | 0.00 | 0.00 | 75 | 1005.7 |
| 20260510030650 | 75 | 92 | 4.0 | 6.0 | 0.00 | 0.00 | 0.00 | 75 | 1005.7 |
| 20260510030550 | 75 | 86 | 4.0 | 6.0 | 0.00 | 0.00 | 0.00 | 75 | 1005.7 |
| 20260510030451 | 75 | 93 | 4.0 | 6.0 | 0.00 | 0.00 | 0.00 | 75 | 1005.7 |
| 20260510030350 | 75 | 96 | 3.0 | 5.0 | 0.00 | 0.00 | 0.00 | 76 | 1005.6 |
| 20260510030250 | 75 | 93 | 3.0 | 5.0 | 0.00 | 0.00 | 0.00 | 76 | 1005.6 |
| 20260510030153 | 75 | 90 | 3.0 | 5.0 | 0.00 | 0.00 | 0.00 | 76 | 1005.5 |
| 20260510030052 | 75 | 83 | 3.0 | 5.0 | 0.00 | 0.00 | 0.00 | 76 | 1005.5 |
| 20260510025950 | 75 | 78 | 2.0 | 5.0 | 0.00 | 0.00 | 0.00 | 76 | 1005.5 |
| 20260510025852 | 75 | 97 | 1.0 | 5.0 | 0.00 | 0.00 | 0.00 | 76 | 1005.4 |
| 20260510025749 | 75 | 97 | 1.0 | 5.0 | 0.00 | 0.00 | 0.00 | 76 | 1005.4 |
| 20260510025651 | 75 | 97 | 1.0 | 5.0 | 0.00 | 0.00 | 0.00 | 76 | 1005.5 |
| 20260510025555 | 76 | 97 | 1.0 | 5.0 | 0.00 | 0.00 | 0.00 | 76 | 1005.4 |
| 20260510025449 | 76 | 97 | 2.0 | 5.0 | 0.00 | 0.00 | 0.00 | 76 | 1005.4 |
| 20260510025351 | 76 | 97 | 1.0 | 5.0 | 0.00 | 0.00 | 0.00 | 76 | 1005.3 |
| 20260510025250 | 76 | 97 | 2.0 | 5.0 | 0.00 | 0.00 | 0.00 | 75 | 1005.2 |
| 20260510025150 | 76 | 97 | 2.0 | 5.0 | 0.00 | 0.00 | 0.00 | 75 | 1005.2 |
| 20260510025050 | 76 | 97 | 2.0 | 5.0 | 0.00 | 0.00 | 0.00 | 75 | 1005.1 |
| 20260510024951 | 76 | 99 | 2.0 | 4.0 | 0.00 | 0.00 | 0.00 | 75 | 1005.2 |
| 20260510024850 | 76 | 99 | 2.0 | 4.0 | 0.00 | 0.00 | 0.00 | 75 | 1005.2 |
| 20260510024751 | 76 | 94 | 1.0 | 3.0 | 0.00 | 0.00 | 0.00 | 75 | 1005.1 |
| 20260510024649 | 76 | 94 | 2.0 | 3.0 | 0.00 | 0.00 | 0.00 | 75 | 1005.1 |
| 20260510024550 | 76 | 96 | 2.0 | 3.0 | 0.00 | 0.00 | 0.00 | 75 | 1005.1 |
| 20260510024451 | 76 | 97 | 2.0 | 3.0 | 0.00 | 0.00 | 0.00 | 75 | 1005.1 |
| 20260510024349 | 76 | 97 | 1.0 | 4.0 | 0.00 | 0.00 | 0.00 | 75 | 1005.1 |
| 20260510024251 | 76 | 97 | 1.0 | 5.0 | 0.00 | 0.00 | 0.00 | 75 | 1005.0 |
| 20260510024151 | 76 | 97 | 1.0 | 6.0 | 0.00 | 0.00 | 0.00 | 75 | 1005.0 |
| 20260510024050 | 76 | 97 | 0.0 | 6.0 | 0.00 | 0.00 | 0.00 | 75 | 1005.0 |
| 20260510023950 | 76 | 97 | 0.0 | 6.0 | 0.00 | 0.00 | 0.00 | 75 | 1004.8 |
| 20260510023850 | 76 | 97 | 1.0 | 6.0 | 0.00 | 0.00 | 0.00 | 75 | 1004.9 |
| 20260510023749 | 76 | 97 | 2.0 | 9.0 | 0.00 | 0.00 | 0.00 | 75 | 1004.8 |
| 20260510023650 | 76 | 97 | 2.0 | 9.0 | 0.00 | 0.00 | 0.00 | 74 | 1004.9 |
| 20260510023551 | 76 | 97 | 2.0 | 9.0 | 0.00 | 0.00 | 0.00 | 74 | 1004.8 |
| 20260510023449 | 76 | 97 | 3.0 | 9.0 | 0.00 | 0.00 | 0.00 | 74 | 1004.7 |
| 20260510023350 | 76 | 96 | 4.0 | 9.0 | 0.00 | 0.00 | 0.00 | 74 | 1004.7 |
| 20260510023250 | 76 | 92 | 4.0 | 9.0 | 0.00 | 0.00 | 0.00 | 74 | 1004.6 |
| 20260510023152 | 76 | 93 | 4.0 | 9.0 | 0.00 | 0.00 | 0.00 | 74 | 1004.6 |
| 20260510023050 | 77 | 106 | 5.0 | 11.0 | 0.00 | 0.00 | 0.00 | 74 | 1004.5 |
| 20260510022949 | 77 | 103 | 6.0 | 11.0 | 0.00 | 0.00 | 0.00 | 74 | 1004.5 |
| 20260510022851 | 77 | 102 | 5.0 | 11.0 | 0.00 | 0.00 | 0.00 | 73 | 1004.5 |
| 20260510022752 | 77 | 111 | 5.0 | 11.0 | 0.00 | 0.00 | 0.00 | 73 | 1004.5 |
| 20260510022649 | 77 | 106 | 5.0 | 11.0 | 0.00 | 0.00 | 0.00 | 73 | 1004.5 |
| 20260510022550 | 77 | 127 | 4.0 | 11.0 | 0.00 | 0.00 | 0.00 | 73 | 1004.4 |
| 20260510022449 | 76 | 140 | 4.0 | 11.0 | 0.00 | 0.00 | 0.00 | 73 | 1004.4 |
| 20260510022349 | 76 | 127 | 5.0 | 11.0 | 0.00 | 0.00 | 0.00 | 73 | 1004.4 |
| 20260510022251 | 76 | 87 | 6.0 | 11.0 | 0.00 | 0.00 | 0.00 | 73 | 1004.4 |
| 20260510022149 | 76 | 99 | 6.0 | 11.0 | 0.00 | 0.00 | 0.00 | 73 | 1004.5 |
| 20260510022050 | 76 | 104 | 5.0 | 9.0 | 0.00 | 0.00 | 0.00 | 73 | 1004.3 |
| 20260510021949 | 76 | 97 | 4.0 | 9.0 | 0.00 | 0.00 | 0.00 | 73 | 1004.3 |
| 20260510021849 | 76 | 93 | 4.0 | 9.0 | 0.00 | 0.00 | 0.00 | 73 | 1004.2 |
| 20260510021749 | 76 | 90 | 6.0 | 9.0 | 0.00 | 0.00 | 0.00 | 74 | 1004.1 |
| 20260510021650 | 76 | 97 | 7.0 | 9.0 | 0.00 | 0.00 | 0.00 | 74 | 1004.2 |
| 20260510021551 | 76 | 90 | 3.0 | 9.0 | 0.00 | 0.00 | 0.00 | 74 | 1004.1 |
| 20260510021450 | 76 | 123 | 0.0 | 4.0 | 0.00 | 0.00 | 0.00 | 74 | 1004.0 |
| 20260510021349 | 76 | 127 | 0.0 | 0.0 | 0.00 | 0.00 | 0.00 | 74 | 1003.9 |
| 20260510021249 | 76 | 127 | 0.0 | 0.0 | 0.00 | 0.00 | 0.00 | 74 | 1003.8 |
| 20260510021149 | 76 | 127 | 0.0 | 0.0 | 0.00 | 0.00 | 0.00 | 74 | 1003.8 |
| 20260510021050 | 76 | 127 | 0.0 | 0.0 | 0.00 | 0.00 | 0.00 | 74 | 1003.8 |
| 20260510020950 | 76 | 127 | 0.0 | 0.0 | 0.00 | 0.00 | 0.00 | 74 | 1003.8 |
| 20260510020850 | 76 | 127 | 0.0 | 0.0 | 0.00 | 0.00 | 0.00 | 74 | 1003.9 |
| 20260510020750 | 76 | 127 | 0.0 | 0.0 | 0.00 | 0.00 | 0.00 | 73 | 1003.9 |
| 20260510020649 | 76 | 127 | 0.0 | 0.0 | 0.00 | 0.00 | 0.00 | 73 | 1003.8 |
| 20260510020549 | 76 | 127 | 0.0 | 0.0 | 0.00 | 0.00 | 0.00 | 73 | 1003.8 |
| 20260510020450 | 76 | 127 | 0.0 | 0.0 | 0.00 | 0.00 | 0.00 | 72 | 1003.8 |
| 20260510020350 | 76 | 127 | 0.0 | 0.0 | 0.00 | 0.00 | 0.00 | 72 | 1003.7 |
| 20260510020251 | 76 | 127 | 0.0 | 0.0 | 0.00 | 0.00 | 0.00 | 72 | 1003.7 |
| 20260510020148 | 76 | 127 | 0.0 | 0.0 | 0.00 | 0.00 | 0.00 | 72 | 1003.6 |
| 20260510020051 | 76 | 127 | 0.0 | 0.0 | 0.00 | 0.00 | 0.00 | 72 | 1003.5 |
| 20260510015950 | 76 | 127 | 0.0 | 0.0 | 0.00 | 0.00 | 0.00 | 72 | 1003.5 |
| 20260510015848 | 76 | 127 | 0.0 | 0.0 | 0.00 | 0.00 | 0.00 | 72 | 1003.4 |
| 20260510015748 | 76 | 127 | 0.0 | 0.0 | 0.00 | 0.00 | 0.00 | 71 | 1003.4 |
| 20260510015649 | 76 | 127 | 0.0 | 0.0 | 0.00 | 0.00 | 0.00 | 71 | 1003.4 |
| 20260510015548 | 76 | 127 | 0.0 | 0.0 | 0.00 | 0.00 | 0.00 | 71 | 1003.4 |
| 20260510015448 | 76 | 127 | 0.0 | 0.0 | 0.00 | 0.00 | 0.00 | 71 | 1003.4 |
| 20260510015350 | 76 | 127 | 0.0 | 0.0 | 0.00 | 0.00 | 0.00 | 71 | 1003.4 |
| 20260510015249 | 76 | 127 | 0.0 | 0.0 | 0.00 | 0.00 | 0.00 | 70 | 1003.3 |
| 20260510015151 | 76 | 127 | 0.0 | 0.0 | 0.00 | 0.00 | 0.00 | 70 | 1003.3 |
| 20260510015048 | 76 | 127 | 0.0 | 0.0 | 0.00 | 0.00 | 0.00 | 70 | 1003.3 |
| 20260510014948 | 76 | 127 | 0.0 | 0.0 | 0.00 | 0.00 | 0.00 | 70 | 1003.3 |
| 20260510014850 | 77 | 127 | 0.0 | 0.0 | 0.00 | 0.00 | 0.00 | 70 | 1003.2 |
| 20260510014748 | 77 | 127 | 0.0 | 0.0 | 0.00 | 0.00 | 0.00 | 70 | 1003.2 |
| 20260510014649 | 77 | 127 | 0.0 | 0.0 | 0.00 | 0.00 | 0.00 | 70 | 1003.1 |
| 20260510014549 | 77 | 127 | 0.0 | 0.0 | 0.00 | 0.00 | 0.00 | 69 | 1003.2 |
| 20260510014448 | 77 | 127 | 0.0 | 0.0 | 0.00 | 0.00 | 0.00 | 69 | 1003.1 |
| 20260510014350 | 77 | 127 | 0.0 | 0.0 | 0.00 | 0.00 | 0.00 | 69 | 1003.1 |
| 20260510014248 | 77 | 127 | 0.0 | 0.0 | 0.00 | 0.00 | 0.00 | 69 | 1003.0 |
| 20260510014149 | 77 | 127 | 0.0 | 0.0 | 0.00 | 0.00 | 0.00 | 69 | 1003.0 |
| 20260510014050 | 77 | 127 | 0.0 | 0.0 | 0.00 | 0.00 | 0.00 | 69 | 1003.1 |
| 20260510013951 | 77 | 127 | 0.0 | 0.0 | 0.00 | 0.00 | 0.00 | 69 | 1003.1 |
| 20260510013849 | 77 | 127 | 0.0 | 0.0 | 0.00 | 0.00 | 0.00 | 69 | 1003.1 |
| 20260510013749 | 77 | 127 | 0.0 | 0.0 | 0.00 | 0.00 | 0.00 | 69 | 1003.1 |
| 20260510013648 | 77 | 127 | 0.0 | 0.0 | 0.00 | 0.00 | 0.00 | 69 | 1003.1 |
| 20260510013548 | 77 | 127 | 0.0 | 0.0 | 0.00 | 0.00 | 0.00 | 69 | 1003.2 |
| 20260510013449 | 77 | 127 | 0.0 | 0.0 | 0.00 | 0.00 | 0.00 | 69 | 1003.1 |
| 20260510013348 | 77 | 127 | 0.0 | 0.0 | 0.00 | 0.00 | 0.00 | 69 | 1003.2 |
| 20260510013248 | 78 | 127 | 0.0 | 0.0 | 0.00 | 0.00 | 0.00 | 69 | 1003.2 |
| 20260510013148 | 78 | 127 | 0.0 | 0.0 | 0.00 | 0.00 | 0.00 | 68 | 1003.2 |
| 20260510013050 | 78 | 127 | 0.0 | 0.0 | 0.00 | 0.00 | 0.00 | 68 | 1003.2 |
| 20260510012949 | 78 | 127 | 0.0 | 0.0 | 0.00 | 0.00 | 0.00 | 68 | 1003.2 |
| 20260510012851 | 78 | 127 | 0.0 | 0.0 | 0.00 | 0.00 | 0.00 | 68 | 1003.2 |
| 20260510012749 | 78 | 127 | 0.0 | 1.0 | 0.00 | 0.00 | 0.00 | 68 | 1003.1 |
| 20260510012649 | 78 | 127 | 0.0 | 1.0 | 0.00 | 0.00 | 0.00 | 68 | 1003.2 |
| 20260510012550 | 78 | 127 | 0.0 | 3.0 | 0.00 | 0.00 | 0.00 | 68 | 1003.1 |
| 20260510012449 | 78 | 127 | 0.0 | 3.0 | 0.00 | 0.00 | 0.00 | 68 | 1003.1 |
| 20260510012348 | 78 | 127 | 0.0 | 3.0 | 0.00 | 0.00 | 0.00 | 67 | 1003.2 |
| 20260510012248 | 78 | 127 | 0.0 | 3.0 | 0.00 | 0.00 | 0.00 | 67 | 1003.2 |
| 20260510012147 | 78 | 127 | 0.0 | 3.0 | 0.00 | 0.00 | 0.00 | 67 | 1003.3 |
| 20260510012048 | 78 | 127 | 0.0 | 3.0 | 0.00 | 0.00 | 0.00 | 67 | 1003.3 |
| 20260510011947 | 78 | 127 | 0.0 | 3.0 | 0.00 | 0.00 | 0.00 | 67 | 1003.3 |
| 20260510011848 | 78 | 127 | 0.0 | 3.0 | 0.00 | 0.00 | 0.00 | 67 | 1003.3 |
| 20260510011747 | 78 | 127 | 1.0 | 3.0 | 0.00 | 0.00 | 0.00 | 67 | 1003.2 |
| 20260510011648 | 78 | 127 | 2.0 | 3.0 | 0.00 | 0.00 | 0.00 | 67 | 1003.2 |
| 20260510011549 | 78 | 127 | 2.0 | 5.0 | 0.00 | 0.00 | 0.00 | 67 | 1003.1 |
| 20260510011448 | 78 | 103 | 2.0 | 5.0 | 0.00 | 0.00 | 0.00 | 67 | 1003.1 |
| 20260510011349 | 78 | 103 | 2.0 | 5.0 | 0.00 | 0.00 | 0.00 | 67 | 1003.1 |
| 20260510011249 | 78 | 103 | 2.0 | 5.0 | 0.00 | 0.00 | 0.00 | 67 | 1003.2 |
| 20260510011148 | 78 | 103 | 2.0 | 5.0 | 0.00 | 0.00 | 0.00 | 67 | 1003.2 |
| 20260510011048 | 78 | 103 | 2.0 | 5.0 | 0.00 | 0.00 | 0.00 | 67 | 1003.2 |
| 20260510010949 | 78 | 103 | 3.0 | 5.0 | 0.00 | 0.00 | 0.00 | 67 | 1003.1 |
| 20260510010847 | 78 | 102 | 3.0 | 5.0 | 0.00 | 0.00 | 0.00 | 67 | 1003.2 |
| 20260510010749 | 78 | 102 | 3.0 | 5.0 | 0.00 | 0.00 | 0.00 | 67 | 1003.1 |
| 20260510010647 | 78 | 102 | 4.0 | 5.0 | 0.00 | 0.00 | 0.00 | 66 | 1003.1 |
| 20260510010547 | 78 | 104 | 3.0 | 5.0 | 0.00 | 0.00 | 0.00 | 66 | 1003.2 |
| 20260510010447 | 78 | 104 | 4.0 | 5.0 | 0.00 | 0.00 | 0.00 | 66 | 1003.1 |
| 20260510010349 | 78 | 106 | 4.0 | 5.0 | 0.00 | 0.00 | 0.00 | 66 | 1003.2 |
| 20260510010249 | 79 | 110 | 3.0 | 5.0 | 0.00 | 0.00 | 0.00 | 66 | 1003.1 |
| 20260510010150 | 79 | 142 | 2.0 | 4.0 | 0.00 | 0.00 | 0.00 | 66 | 1003.2 |
| 20260510010049 | 79 | 147 | 1.0 | 4.0 | 0.00 | 0.00 | 0.00 | 66 | 1003.2 |
| 20260510005947 | 79 | 161 | 0.0 | 0.0 | 0.00 | 0.00 | 0.00 | 66 | 1003.1 |
| 20260510005848 | 79 | 161 | 0.0 | 0.0 | 0.00 | 0.00 | 0.00 | 66 | 1003.1 |
| 20260510005747 | 79 | 162 | 0.0 | 0.0 | 0.00 | 0.00 | 0.00 | 66 | 1003.1 |
| 20260510005647 | 79 | 162 | 0.0 | 0.0 | 0.00 | 0.00 | 0.00 | 65 | 1002.9 |
| 20260510005548 | 79 | 164 | 0.0 | 0.0 | 0.00 | 0.00 | 0.00 | 65 | 1003.0 |
| 20260510005447 | 79 | 165 | 0.0 | 0.0 | 0.00 | 0.00 | 0.00 | 65 | 1002.9 |
| 20260510005347 | 79 | 166 | 0.0 | 1.0 | 0.00 | 0.00 | 0.00 | 64 | 1002.9 |
| 20260510005247 | 79 | 166 | 0.0 | 4.0 | 0.00 | 0.00 | 0.00 | 63 | 1002.8 |
| 20260510005148 | 79 | 166 | 0.0 | 4.0 | 0.00 | 0.00 | 0.00 | 63 | 1002.7 |
| 20260510005046 | 79 | 168 | 0.0 | 4.0 | 0.00 | 0.00 | 0.00 | 63 | 1002.6 |
| 20260510004946 | 79 | 171 | 0.0 | 4.0 | 0.00 | 0.00 | 0.00 | 63 | 1002.6 |
| 20260510004848 | 79 | 171 | 0.0 | 4.0 | 0.00 | 0.00 | 0.00 | 63 | 1002.6 |
| 20260510004747 | 79 | 171 | 0.0 | 4.0 | 0.00 | 0.00 | 0.00 | 63 | 1002.6 |
| 20260510004648 | 79 | 169 | 0.0 | 4.0 | 0.00 | 0.00 | 0.00 | 63 | 1002.6 |
| 20260510004547 | 79 | 171 | 0.0 | 4.0 | 0.00 | 0.00 | 0.00 | 63 | 1002.6 |
| 20260510004447 | 79 | 202 | 1.0 | 4.0 | 0.00 | 0.00 | 0.00 | 64 | 1002.7 |
| 20260510004347 | 79 | 202 | 2.0 | 5.0 | 0.00 | 0.00 | 0.00 | 64 | 1002.6 |
| 20260510004248 | 79 | 151 | 2.0 | 5.0 | 0.00 | 0.00 | 0.00 | 64 | 1002.7 |
| 20260510004147 | 79 | 166 | 3.0 | 5.0 | 0.00 | 0.00 | 0.00 | 64 | 1002.7 |
| 20260510004048 | 79 | 165 | 3.0 | 6.0 | 0.00 | 0.00 | 0.00 | 64 | 1002.8 |
| 20260510003947 | 79 | 161 | 3.0 | 6.0 | 0.00 | 0.00 | 0.00 | 64 | 1002.8 |
| 20260510003847 | 79 | 142 | 2.0 | 6.0 | 0.00 | 0.00 | 0.00 | 64 | 1002.8 |
| 20260510003748 | 79 | 176 | 3.0 | 6.0 | 0.00 | 0.00 | 0.00 | 64 | 1002.9 |
| 20260510003646 | 79 | 145 | 3.0 | 6.0 | 0.00 | 0.00 | 0.00 | 64 | 1002.9 |
| 20260510003547 | 79 | 135 | 3.0 | 6.0 | 0.00 | 0.00 | 0.00 | 65 | 1002.9 |
| 20260510003447 | 79 | 157 | 3.0 | 6.0 | 0.00 | 0.00 | 0.00 | 65 | 1002.9 |
| 20260510003347 | 78 | 166 | 3.0 | 6.0 | 0.00 | 0.00 | 0.00 | 65 | 1002.9 |
| 20260510003248 | 78 | 169 | 2.0 | 6.0 | 0.00 | 0.00 | 0.00 | 65 | 1002.8 |
| 20260510003147 | 78 | 142 | 3.0 | 6.0 | 0.00 | 0.00 | 0.00 | 65 | 1002.8 |
| 20260510003048 | 78 | 171 | 2.0 | 5.0 | 0.00 | 0.00 | 0.00 | 66 | 1002.8 |
| 20260510002947 | 78 | 169 | 1.0 | 5.0 | 0.00 | 0.00 | 0.00 | 67 | 1002.8 |
| 20260510002847 | 78 | 190 | 2.0 | 5.0 | 0.00 | 0.00 | 0.00 | 67 | 1002.8 |
| 20260510002747 | 78 | 158 | 3.0 | 5.0 | 0.00 | 0.00 | 0.00 | 68 | 1002.9 |
| 20260510002647 | 77 | 166 | 3.0 | 7.0 | 0.00 | 0.00 | 0.00 | 69 | 1002.9 |
| 20260510002548 | 77 | 147 | 2.0 | 7.0 | 0.00 | 0.00 | 0.00 | 69 | 1003.1 |
| 20260510002448 | 77 | 175 | 2.0 | 7.0 | 0.00 | 0.00 | 0.00 | 69 | 1003.0 |
| 20260510002349 | 77 | 178 | 2.0 | 7.0 | 0.00 | 0.00 | 0.00 | 69 | 1002.9 |
| 20260510002247 | 77 | 179 | 3.0 | 7.0 | 0.00 | 0.00 | 0.00 | 69 | 1003.1 |
| 20260510002148 | 77 | 172 | 3.0 | 7.0 | 0.00 | 0.00 | 0.00 | 70 | 1003.0 |
| 20260510002046 | 77 | 114 | 3.0 | 7.0 | 0.00 | 0.00 | 0.00 | 70 | 1003.0 |
| 20260510001948 | 76 | 102 | 4.0 | 7.0 | 0.00 | 0.00 | 0.00 | 70 | 1002.9 |
| 20260510001847 | 76 | 111 | 4.0 | 9.0 | 0.00 | 0.00 | 0.00 | 70 | 1002.9 |
| 20260510001746 | 76 | 148 | 4.0 | 9.0 | 0.00 | 0.00 | 0.00 | 70 | 1002.9 |
| 20260510001646 | 76 | 128 | 4.0 | 10.0 | 0.00 | 0.00 | 0.00 | 70 | 1002.8 |
| 20260510001546 | 76 | 161 | 4.0 | 11.0 | 0.00 | 0.00 | 0.00 | 70 | 1002.8 |
| 20260510001448 | 76 | 159 | 4.0 | 11.0 | 0.00 | 0.00 | 0.00 | 70 | 1002.9 |
| 20260510001346 | 76 | 219 | 4.0 | 14.0 | 0.00 | 0.00 | 0.00 | 70 | 1002.9 |
| 20260510001246 | 76 | 111 | 5.0 | 14.0 | 0.00 | 0.00 | 0.00 | 70 | 1002.9 |
| 20260510001148 | 76 | 149 | 5.0 | 14.0 | 0.00 | 0.00 | 0.00 | 69 | 1002.9 |
| 20260510001046 | 76 | 147 | 6.0 | 14.0 | 0.00 | 0.00 | 0.00 | 69 | 1002.8 |
| 20260510000946 | 77 | 202 | 6.0 | 14.0 | 0.00 | 0.00 | 0.00 | 69 | 1002.8 |
| 20260510000847 | 77 | 254 | 6.0 | 14.0 | 0.00 | 0.00 | 0.00 | 68 | 1002.8 |
| 20260510000746 | 77 | 111 | 6.0 | 15.0 | 0.00 | 0.00 | 0.00 | 68 | 1002.8 |
| 20260510000645 | 77 | 134 | 7.0 | 15.0 | 0.00 | 0.00 | 0.00 | 67 | 1002.9 |
| 20260510000547 | 78 | 134 | 8.0 | 15.0 | 0.00 | 0.00 | 0.00 | 67 | 1002.9 |
| 20260510000448 | 78 | 144 | 7.0 | 15.0 | 0.00 | 0.00 | 0.00 | 67 | 1003.0 |
| 20260510000348 | 78 | 147 | 7.0 | 15.0 | 0.00 | 0.00 | 0.00 | 65 | 1003.0 |
| 20260510000248 | 78 | 145 | 8.0 | 15.0 | 0.00 | 0.00 | 0.00 | 65 | 1003.1 |
| 20260510000146 | 79 | 161 | 7.0 | 15.0 | 0.00 | 0.00 | 0.00 | 64 | 1002.9 |
| 20260510000046 | 79 | 176 | 7.0 | 15.0 | 0.00 | 0.00 | 0.00 | 63 | 1002.9 |
| 20260509235948 | 80 | 159 | 8.0 | 15.0 | 0.00 | 0.00 | 0.00 | 63 | 1003.1 |
| 20260509235847 | 80 | 173 | 7.0 | 15.0 | 0.00 | 0.00 | 0.00 | 63 | 1003.1 |
| 20260509235746 | 81 | 158 | 6.0 | 16.0 | 0.00 | 0.00 | 0.00 | 63 | 1003.1 |
| 20260509235645 | 81 | 152 | 5.0 | 16.0 | 0.00 | 0.00 | 0.00 | 63 | 1003.2 |
| 20260509235546 | 81 | 148 | 6.0 | 16.0 | 0.00 | 0.00 | 0.00 | 63 | 1003.1 |
| 20260509235447 | 82 | 155 | 7.0 | 16.0 | 0.00 | 0.00 | 0.00 | 62 | 1003.0 |
| 20260509235346 | 82 | 147 | 8.0 | 16.0 | 0.00 | 0.00 | 0.00 | 63 | 1002.9 |
| 20260509235247 | 83 | 137 | 8.0 | 16.0 | 0.00 | 0.00 | 0.00 | 62 | 1002.9 |
| 20260509235146 | 84 | 131 | 7.0 | 16.0 | 0.00 | 0.00 | 0.00 | 62 | 1002.9 |
| 20260509235046 | 84 | 154 | 10.0 | 16.0 | 0.00 | 0.00 | 0.00 | 61 | 1002.8 |
| 20260509234947 | 85 | 147 | 11.0 | 16.0 | 0.00 | 0.00 | 0.00 | 62 | 1002.8 |
| 20260509234847 | 85 | 100 | 9.0 | 16.0 | 0.00 | 0.00 | 0.00 | 62 | 1002.8 |
| 20260509234747 | 86 | 161 | 8.0 | 12.0 | 0.00 | 0.00 | 0.00 | 63 | 1002.6 |
| 20260509234646 | 86 | 135 | 8.0 | 12.0 | 0.00 | 0.00 | 0.00 | 64 | 1002.6 |
| 20260509234546 | 86 | 189 | 6.0 | 12.0 | 0.00 | 0.00 | 0.00 | 65 | 1002.6 |
| 20260509234446 | 87 | 106 | 5.0 | 12.0 | 0.00 | 0.00 | 0.00 | 66 | 1002.5 |
| 20260509234346 | 87 | 166 | 5.0 | 12.0 | 0.00 | 0.00 | 0.00 | 66 | 1002.5 |
| 20260509234247 | 87 | 127 | 4.0 | 12.0 | 0.00 | 0.00 | 0.00 | 65 | 1002.4 |
| 20260509234146 | 88 | 157 | 3.0 | 12.0 | 0.00 | 0.00 | 0.00 | 66 | 1002.4 |
| 20260509234047 | 88 | 164 | 0.0 | 0.0 | 0.00 | 0.00 | 0.00 | 66 | 1002.4 |
| 20260509233945 | 88 | 193 | 0.0 | 0.0 | 0.00 | 0.00 | 0.00 | 66 | 1002.4 |
| 20260509233848 | 88 | 337 | 0.0 | 0.0 | 0.00 | 0.00 | 0.00 | 66 | 1002.3 |
| 20260509233745 | 88 | 340 | 0.0 | 0.0 | 0.00 | 0.00 | 0.00 | 66 | 1002.4 |
| 20260509233645 | 88 | 340 | 0.0 | 0.0 | 0.00 | 0.00 | 0.00 | 66 | 1002.4 |
| 20260509233546 | 88 | 340 | 0.0 | 0.0 | 0.00 | 0.00 | 0.00 | 66 | 1002.3 |
| 20260509233446 | 88 | 340 | 0.0 | 0.0 | 0.00 | 0.00 | 0.00 | 66 | 1002.3 |
| 20260509233347 | 88 | 340 | 0.0 | 0.0 | 0.00 | 0.00 | 0.00 | 64 | 1002.3 |
| 20260509233247 | 88 | 340 | 0.0 | 0.0 | 0.00 | 0.00 | 0.00 | 64 | 1002.3 |
| 20260509233145 | 88 | 340 | 0.0 | 0.0 | 0.00 | 0.00 | 0.00 | 65 | 1002.2 |
| 20260509233046 | 88 | 340 | 0.0 | 0.0 | 0.00 | 0.00 | 0.00 | 65 | 1002.2 |
| 20260509232945 | 88 | 340 | 0.0 | 0.0 | 0.00 | 0.00 | 0.00 | 65 | 1002.3 |
| 20260509232846 | 88 | 340 | 0.0 | 0.0 | 0.00 | 0.00 | 0.00 | 65 | 1002.2 |
| 20260509232746 | 88 | 340 | 0.0 | 0.0 | 0.00 | 0.00 | 0.00 | 65 | 1002.2 |
| 20260509232648 | 88 | 340 | 0.0 | 0.0 | 0.00 | 0.00 | 0.00 | 65 | 1002.2 |
| 20260509232545 | 88 | 340 | 0.0 | 0.0 | 0.00 | 0.00 | 0.00 | 66 | 1002.2 |
| 20260509232445 | 88 | 340 | 0.0 | 0.0 | 0.00 | 0.00 | 0.00 | 65 | 1002.2 |
| 20260509232346 | 88 | 340 | 0.0 | 0.0 | 0.00 | 0.00 | 0.00 | 65 | 1002.2 |
| 20260509232245 | 88 | 340 | 0.0 | 0.0 | 0.00 | 0.00 | 0.00 | 65 | 1002.2 |
| 20260509232147 | 88 | 340 | 0.0 | 0.0 | 0.00 | 0.00 | 0.00 | 65 | 1002.2 |
| 20260509232044 | 88 | 340 | 0.0 | 0.0 | 0.00 | 0.00 | 0.00 | 64 | 1002.1 |
| 20260509231947 | 88 | 340 | 0.0 | 0.0 | 0.00 | 0.00 | 0.00 | 64 | 1002.2 |
| 20260509231845 | 88 | 340 | 0.0 | 0.0 | 0.00 | 0.00 | 0.00 | 65 | 1002.1 |
| 20260509231747 | 88 | 340 | 0.0 | 0.0 | 0.00 | 0.00 | 0.00 | 64 | 1002.1 |
| 20260509231646 | 88 | 340 | 0.0 | 0.0 | 0.00 | 0.00 | 0.00 | 64 | 1002.1 |
| 20260509231546 | 88 | 340 | 0.0 | 0.0 | 0.00 | 0.00 | 0.00 | 63 | 1002.1 |
| 20260509231437 | 88 | 340 | 0.0 | 0.0 | 0.00 | 0.00 | 0.00 | 63 | 1002.1 |
| 20260509231333 | 88 | 340 | 0.0 | 3.0 | 0.00 | 0.00 | 0.00 | 65 | 1002.2 |
| 20260509231233 | 88 | 340 | 0.0 | 3.0 | 0.00 | 0.00 | 0.00 | 65 | 1002.1 |
| 20260509231131 | 88 | 340 | 0.0 | 3.0 | 0.00 | 0.00 | 0.00 | 64 | 1002.1 |
| 20260509231032 | 88 | 340 | 0.0 | 5.0 | 0.00 | 0.00 | 0.00 | 64 | 1002.2 |
| 20260509230932 | 88 | 340 | 0.0 | 5.0 | 0.00 | 0.00 | 0.00 | 64 | 1002.2 |
| 20260509230831 | 87 | 340 | 0.0 | 5.0 | 0.00 | 0.00 | 0.00 | 64 | 1002.2 |
| 20260509230732 | 88 | 340 | 0.0 | 5.0 | 0.00 | 0.00 | 0.00 | 64 | 1002.2 |
| 20260509230626 | 88 | 340 | 0.0 | 5.0 | 0.00 | 0.00 | 0.00 | 64 | 1002.2 |
| 20260509230524 | 88 | 340 | 1.0 | 5.0 | 0.00 | 0.00 | 0.00 | 65 | 1002.2 |
| 20260509230411 | 88 | 340 | 2.0 | 5.0 | 0.00 | 0.00 | 0.00 | 66 | 1002.2 |
| 20260509230309 | 87 | 337 | 2.0 | 5.0 | 0.00 | 0.00 | 0.00 | 66 | 1002.2 |
| 20260509230206 | 87 | 337 | 3.0 | 5.0 | 0.00 | 0.00 | 0.00 | 64 | 1002.3 |
| 20260509230105 | 87 | 337 | 4.0 | 5.0 | 0.00 | 0.00 | 0.00 | 64 | 1002.2 |
| 20260509230003 | 87 | 337 | 3.0 | 5.0 | 0.00 | 0.00 | 0.00 | 65 | 1002.1 |
| 20260509225902 | 87 | 337 | 2.0 | 5.0 | 0.00 | 0.00 | 0.00 | 65 | 1002.2 |
| 20260509225804 | 87 | 337 | 3.0 | 5.0 | 0.00 | 0.00 | 0.00 | 66 | 1002.1 |
| 20260509225704 | 87 | 337 | 3.0 | 5.0 | 0.00 | 0.00 | 0.00 | 66 | 1002.1 |
| 20260509225603 | 88 | 337 | 4.0 | 5.0 | 0.00 | 0.00 | 0.00 | 64 | 1002.0 |
| 20260509225505 | 88 | 337 | 4.0 | 5.0 | 0.00 | 0.00 | 0.00 | 64 | 1002.0 |
| 20260509225402 | 88 | 337 | 4.0 | 5.0 | 0.00 | 0.00 | 0.00 | 64 | 1002.0 |
| 20260509225306 | 88 | 341 | 3.0 | 5.0 | 0.00 | 0.00 | 0.00 | 65 | 1002.0 |
| 20260509225202 | 88 | 0 | 2.0 | 4.0 | 0.00 | 0.00 | 0.00 | 65 | 1001.9 |
| 20260509225104 | 88 | 0 | 2.0 | 4.0 | 0.00 | 0.00 | 0.00 | 64 | 1001.9 |
| 20260509225004 | 88 | 0 | 1.0 | 4.0 | 0.00 | 0.00 | 0.00 | 64 | 1001.8 |
| 20260509224904 | 88 | 0 | 1.0 | 4.0 | 0.00 | 0.00 | 0.00 | 63 | 1001.8 |
| 20260509224803 | 88 | 0 | 1.0 | 4.0 | 0.00 | 0.00 | 0.00 | 63 | 1001.7 |
| 20260509224702 | 88 | 0 | 2.0 | 4.0 | 0.00 | 0.00 | 0.00 | 63 | 1001.8 |
| 20260509224604 | 88 | 0 | 2.0 | 5.0 | 0.00 | 0.00 | 0.00 | 65 | 1001.8 |
| 20260509224502 | 88 | 0 | 2.0 | 5.0 | 0.00 | 0.00 | 0.00 | 65 | 1001.8 |
| 20260509224402 | 88 | 0 | 3.0 | 5.0 | 0.00 | 0.00 | 0.00 | 65 | 1001.8 |
| 20260509224304 | 88 | 333 | 3.0 | 5.0 | 0.00 | 0.00 | 0.00 | 64 | 1001.9 |
| 20260509224203 | 88 | 312 | 2.0 | 5.0 | 0.00 | 0.00 | 0.00 | 64 | 1001.9 |
| 20260509224101 | 88 | 309 | 3.0 | 5.0 | 0.00 | 0.00 | 0.00 | 64 | 1001.9 |
| 20260509224003 | 88 | 309 | 3.0 | 5.0 | 0.00 | 0.00 | 0.00 | 64 | 1001.9 |
| 20260509223903 | 88 | 309 | 3.0 | 5.0 | 0.00 | 0.00 | 0.00 | 64 | 1001.9 |
| 20260509223803 | 88 | 323 | 3.0 | 5.0 | 0.00 | 0.00 | 0.00 | 64 | 1001.9 |
| 20260509223703 | 88 | 336 | 3.0 | 5.0 | 0.00 | 0.00 | 0.00 | 64 | 1002.0 |
| 20260509223602 | 88 | 340 | 3.0 | 5.0 | 0.00 | 0.00 | 0.00 | 64 | 1002.0 |
| 20260509223504 | 88 | 317 | 3.0 | 5.0 | 0.00 | 0.00 | 0.00 | 64 | 1002.0 |
| 20260509223404 | 88 | 317 | 3.0 | 6.0 | 0.00 | 0.00 | 0.00 | 64 | 1002.1 |
| 20260509223302 | 88 | 317 | 3.0 | 6.0 | 0.00 | 0.00 | 0.00 | 64 | 1002.2 |
| 20260509223202 | 88 | 320 | 2.0 | 6.0 | 0.00 | 0.00 | 0.00 | 64 | 1002.2 |
| 20260509223103 | 88 | 340 | 4.0 | 6.0 | 0.00 | 0.00 | 0.00 | 65 | 1002.2 |
| 20260509223004 | 89 | 340 | 3.0 | 6.0 | 0.00 | 0.00 | 0.00 | 64 | 1002.1 |
| 20260509222903 | 89 | 334 | 3.0 | 6.0 | 0.00 | 0.00 | 0.00 | 64 | 1002.1 |
| 20260509222802 | 89 | 314 | 3.0 | 6.0 | 0.00 | 0.00 | 0.00 | 64 | 1002.0 |
| 20260509222704 | 89 | 295 | 4.0 | 6.0 | 0.00 | 0.00 | 0.00 | 63 | 1001.9 |
| 20260509222602 | 89 | 295 | 3.0 | 6.0 | 0.00 | 0.00 | 0.00 | 62 | 1002.0 |
| 20260509222506 | 89 | 295 | 4.0 | 6.0 | 0.00 | 0.00 | 0.00 | 62 | 1002.0 |
| 20260509222403 | 89 | 296 | 2.0 | 6.0 | 0.00 | 0.00 | 0.00 | 63 | 1001.9 |
| 20260509222306 | 89 | 259 | 0.0 | 4.0 | 0.00 | 0.00 | 0.00 | 63 | 1001.9 |
| 20260509222203 | 89 | 259 | 1.0 | 4.0 | 0.00 | 0.00 | 0.00 | 63 | 1001.9 |
| 20260509222102 | 89 | 259 | 1.0 | 5.0 | 0.00 | 0.00 | 0.00 | 63 | 1002.0 |
| 20260509222005 | 89 | 259 | 2.0 | 6.0 | 0.00 | 0.00 | 0.00 | 63 | 1002.0 |
| 20260509221903 | 89 | 281 | 2.0 | 6.0 | 0.00 | 0.00 | 0.00 | 64 | 1001.9 |
| 20260509221803 | 89 | 281 | 2.0 | 6.0 | 0.00 | 0.00 | 0.00 | 64 | 1001.8 |
| 20260509221704 | 89 | 281 | 1.0 | 6.0 | 0.00 | 0.00 | 0.00 | 64 | 1001.8 |
| 20260509221602 | 89 | 282 | 1.0 | 6.0 | 0.00 | 0.00 | 0.00 | 64 | 1001.8 |
| 20260509221505 | 89 | 282 | 1.0 | 6.0 | 0.00 | 0.00 | 0.00 | 65 | 1001.8 |
| 20260509221404 | 89 | 285 | 2.0 | 6.0 | 0.00 | 0.00 | 0.00 | 65 | 1001.8 |
| 20260509221302 | 89 | 285 | 3.0 | 6.0 | 0.00 | 0.00 | 0.00 | 65 | 1001.8 |
| 20260509221203 | 89 | 288 | 4.0 | 6.0 | 0.00 | 0.00 | 0.00 | 65 | 1001.8 |
| 20260509221102 | 89 | 343 | 4.0 | 6.0 | 0.00 | 0.00 | 0.00 | 65 | 1001.8 |
| 20260509221004 | 89 | 347 | 4.0 | 6.0 | 0.00 | 0.00 | 0.00 | 65 | 1001.8 |
| 20260509220902 | 89 | 333 | 4.0 | 5.0 | 0.00 | 0.00 | 0.00 | 65 | 1001.7 |
| 20260509220803 | 89 | 283 | 4.0 | 5.0 | 0.00 | 0.00 | 0.00 | 64 | 1001.8 |
| 20260509220704 | 90 | 306 | 4.0 | 5.0 | 0.00 | 0.00 | 0.00 | 65 | 1001.8 |
| 20260509220608 | 90 | 317 | 3.0 | 5.0 | 0.00 | 0.00 | 0.00 | 66 | 1001.8 |
| 20260509220504 | 90 | 319 | 2.0 | 4.0 | 0.00 | 0.00 | 0.00 | 66 | 1001.9 |
| 20260509220402 | 90 | 326 | 2.0 | 4.0 | 0.00 | 0.00 | 0.00 | 66 | 1001.9 |
| 20260509220303 | 90 | 326 | 1.0 | 4.0 | 0.00 | 0.00 | 0.00 | 64 | 1001.8 |
| 20260509220204 | 89 | 338 | 0.0 | 5.0 | 0.00 | 0.00 | 0.00 | 65 | 1001.9 |
| 20260509220002 | 89 | 338 | 1.0 | 5.0 | 0.00 | 0.00 | 0.00 | 64 | 1001.8 |
| 20260509215904 | 89 | 338 | 1.0 | 5.0 | 0.00 | 0.00 | 0.00 | 64 | 1001.8 |
| 20260509215802 | 89 | 338 | 2.0 | 5.0 | 0.00 | 0.00 | 0.00 | 64 | 1001.9 |
| 20260509215702 | 89 | 338 | 3.0 | 5.0 | 0.00 | 0.00 | 0.00 | 65 | 1001.8 |
| 20260509215603 | 89 | 340 | 2.0 | 6.0 | 0.00 | 0.00 | 0.00 | 65 | 1001.8 |
| 20260509215504 | 89 | 355 | 2.0 | 6.0 | 0.00 | 0.00 | 0.00 | 65 | 1001.8 |
| 20260509215402 | 89 | 355 | 4.0 | 6.0 | 0.00 | 0.00 | 0.00 | 65 | 1001.8 |
| 20260509215306 | 89 | 355 | 4.0 | 6.0 | 0.00 | 0.00 | 0.00 | 66 | 1001.9 |
| 20260509215202 | 89 | 355 | 3.0 | 6.0 | 0.00 | 0.00 | 0.00 | 66 | 1001.8 |
| 20260509215102 | 89 | 358 | 2.0 | 6.0 | 0.00 | 0.00 | 0.00 | 66 | 1001.9 |
| 20260509215004 | 89 | 281 | 2.0 | 6.0 | 0.00 | 0.00 | 0.00 | 66 | 1001.8 |
| 20260509214904 | 89 | 281 | 2.0 | 6.0 | 0.00 | 0.00 | 0.00 | 65 | 1001.8 |
| 20260509214802 | 89 | 281 | 3.0 | 6.0 | 0.00 | 0.00 | 0.00 | 65 | 1001.8 |
| 20260509214703 | 89 | 282 | 4.0 | 6.0 | 0.00 | 0.00 | 0.00 | 65 | 1001.8 |
| 20260509214603 | 89 | 275 | 2.0 | 5.0 | 0.00 | 0.00 | 0.00 | 65 | 1001.8 |
| 20260509214505 | 89 | 268 | 1.0 | 5.0 | 0.00 | 0.00 | 0.00 | 65 | 1001.8 |
| 20260509214404 | 89 | 268 | 2.0 | 6.0 | 0.00 | 0.00 | 0.00 | 65 | 1001.8 |
| 20260509214302 | 89 | 268 | 2.0 | 6.0 | 0.00 | 0.00 | 0.00 | 65 | 1001.8 |
| 20260509214201 | 89 | 250 | 0.0 | 6.0 | 0.00 | 0.00 | 0.00 | 66 | 1001.9 |
| 20260509214103 | 89 | 248 | 0.0 | 6.0 | 0.00 | 0.00 | 0.00 | 66 | 1001.8 |
| 20260509214002 | 89 | 248 | 1.0 | 6.0 | 0.00 | 0.00 | 0.00 | 67 | 1001.8 |
| 20260509213904 | 89 | 248 | 2.0 | 6.0 | 0.00 | 0.00 | 0.00 | 68 | 1001.8 |
| 20260509213802 | 89 | 248 | 4.0 | 6.0 | 0.00 | 0.00 | 0.00 | 67 | 1001.8 |
| 20260509213703 | 89 | 266 | 4.0 | 6.0 | 0.00 | 0.00 | 0.00 | 67 | 1001.8 |
| 20260509213602 | 89 | 264 | 4.0 | 6.0 | 0.00 | 0.00 | 0.00 | 66 | 1001.8 |
| 20260509213503 | 89 | 264 | 4.0 | 6.0 | 0.00 | 0.00 | 0.00 | 66 | 1001.8 |
| 20260509213403 | 89 | 261 | 1.0 | 5.0 | 0.00 | 0.00 | 0.00 | 68 | 1001.8 |
| 20260509213302 | 89 | 286 | 0.0 | 2.0 | 0.00 | 0.00 | 0.00 | 68 | 1001.8 |
| 20260509213202 | 89 | 286 | 0.0 | 2.0 | 0.00 | 0.00 | 0.00 | 66 | 1001.9 |
| 20260509213104 | 89 | 285 | 0.0 | 2.0 | 0.00 | 0.00 | 0.00 | 66 | 1001.9 |
| 20260509213002 | 89 | 283 | 0.0 | 2.0 | 0.00 | 0.00 | 0.00 | 66 | 1001.9 |
| 20260509212902 | 89 | 283 | 0.0 | 2.0 | 0.00 | 0.00 | 0.00 | 66 | 1001.8 |
| 20260509212804 | 89 | 283 | 0.0 | 2.0 | 0.00 | 0.00 | 0.00 | 66 | 1001.9 |
| 20260509212702 | 89 | 283 | 0.0 | 2.0 | 0.00 | 0.00 | 0.00 | 66 | 1001.8 |
| 20260509212601 | 89 | 283 | 0.0 | 2.0 | 0.00 | 0.00 | 0.00 | 66 | 1001.9 |
| 20260509212503 | 89 | 283 | 1.0 | 3.0 | 0.00 | 0.00 | 0.00 | 67 | 1001.9 |
| 20260509212404 | 89 | 283 | 0.0 | 5.0 | 0.00 | 0.00 | 0.00 | 67 | 1001.9 |
| 20260509212306 | 89 | 283 | 0.0 | 5.0 | 0.00 | 0.00 | 0.00 | 67 | 1002.0 |
| 20260509212204 | 89 | 283 | 0.0 | 5.0 | 0.00 | 0.00 | 0.00 | 66 | 1002.0 |
| 20260509212104 | 88 | 283 | 1.0 | 5.0 | 0.00 | 0.00 | 0.00 | 68 | 1002.0 |
| 20260509212002 | 88 | 283 | 1.0 | 5.0 | 0.00 | 0.00 | 0.00 | 67 | 1001.9 |
| 20260509211903 | 88 | 283 | 2.0 | 5.0 | 0.00 | 0.00 | 0.00 | 67 | 1002.0 |
| 20260509211803 | 88 | 288 | 2.0 | 5.0 | 0.00 | 0.00 | 0.00 | 66 | 1002.0 |
| 20260509211702 | 88 | 288 | 2.0 | 5.0 | 0.00 | 0.00 | 0.00 | 68 | 1002.0 |
| 20260509211603 | 88 | 288 | 3.0 | 5.0 | 0.00 | 0.00 | 0.00 | 68 | 1002.0 |
| 20260509211504 | 88 | 288 | 3.0 | 5.0 | 0.00 | 0.00 | 0.00 | 68 | 1002.0 |
| 20260509211402 | 88 | 286 | 2.0 | 4.0 | 0.00 | 0.00 | 0.00 | 68 | 1002.0 |
| 20260509211303 | 88 | 288 | 2.0 | 4.0 | 0.00 | 0.00 | 0.00 | 69 | 1002.0 |
| 20260509211203 | 88 | 288 | 2.0 | 4.0 | 0.00 | 0.00 | 0.00 | 67 | 1002.0 |
| 20260509211103 | 88 | 290 | 2.0 | 4.0 | 0.00 | 0.00 | 0.00 | 67 | 1002.0 |
| 20260509211002 | 88 | 290 | 2.0 | 4.0 | 0.00 | 0.00 | 0.00 | 67 | 1002.0 |
| 20260509210903 | 88 | 290 | 3.0 | 4.0 | 0.00 | 0.00 | 0.00 | 67 | 1002.0 |
| 20260509210804 | 88 | 290 | 3.0 | 4.0 | 0.00 | 0.00 | 0.00 | 67 | 1002.0 |
| 20260509210703 | 88 | 319 | 3.0 | 4.0 | 0.00 | 0.00 | 0.00 | 67 | 1002.1 |
| 20260509210603 | 88 | 0 | 1.0 | 4.0 | 0.00 | 0.00 | 0.00 | 68 | 1002.1 |
| 20260509210504 | 88 | 0 | 1.0 | 5.0 | 0.00 | 0.00 | 0.00 | 68 | 1002.1 |
| 20260509210403 | 88 | 0 | 0.0 | 5.0 | 0.00 | 0.00 | 0.00 | 67 | 1002.1 |
| 20260509210304 | 88 | 0 | 1.0 | 5.0 | 0.00 | 0.00 | 0.00 | 67 | 1002.2 |
| 20260509210202 | 88 | 0 | 0.0 | 5.0 | 0.00 | 0.00 | 0.00 | 67 | 1002.2 |
| 20260509210002 | 88 | 0 | 1.0 | 6.0 | 0.00 | 0.00 | 0.00 | 68 | 1002.1 |
| 20260509205902 | 88 | 0 | 2.0 | 6.0 | 0.00 | 0.00 | 0.00 | 67 | 1002.2 |
| 20260509205804 | 87 | 0 | 2.0 | 6.0 | 0.00 | 0.00 | 0.00 | 68 | 1002.2 |
| 20260509205702 | 87 | 350 | 2.0 | 6.0 | 0.00 | 0.00 | 0.00 | 68 | 1002.2 |
| 20260509205602 | 87 | 350 | 3.0 | 6.0 | 0.00 | 0.00 | 0.00 | 68 | 1002.2 |
| 20260509205505 | 87 | 300 | 2.0 | 6.0 | 0.00 | 0.00 | 0.00 | 68 | 1002.2 |
| 20260509205403 | 87 | 300 | 2.0 | 6.0 | 0.00 | 0.00 | 0.00 | 68 | 1002.2 |
| 20260509205306 | 87 | 300 | 2.0 | 6.0 | 0.00 | 0.00 | 0.00 | 69 | 1002.3 |
| 20260509205202 | 87 | 302 | 3.0 | 6.0 | 0.00 | 0.00 | 0.00 | 68 | 1002.3 |
| 20260509205103 | 87 | 300 | 4.0 | 6.0 | 0.00 | 0.00 | 0.00 | 70 | 1002.3 |
| 20260509205004 | 87 | 303 | 4.0 | 6.0 | 0.00 | 0.00 | 0.00 | 70 | 1002.4 |
| 20260509204903 | 87 | 306 | 4.0 | 6.0 | 0.00 | 0.00 | 0.00 | 69 | 1002.4 |
| 20260509204803 | 88 | 326 | 4.0 | 6.0 | 0.00 | 0.00 | 0.00 | 70 | 1002.4 |
| 20260509204702 | 88 | 327 | 4.0 | 6.0 | 0.00 | 0.00 | 0.00 | 70 | 1002.5 |
| 20260509204603 | 87 | 333 | 3.0 | 6.0 | 0.00 | 0.00 | 0.00 | 70 | 1002.5 |
| 20260509204505 | 87 | 289 | 2.0 | 6.0 | 0.00 | 0.00 | 0.00 | 69 | 1002.5 |
| 20260509204402 | 87 | 289 | 2.0 | 6.0 | 0.00 | 0.00 | 0.00 | 69 | 1002.5 |
| 20260509204304 | 87 | 292 | 3.0 | 6.0 | 0.00 | 0.00 | 0.00 | 68 | 1002.5 |
| 20260509204204 | 87 | 313 | 4.0 | 6.0 | 0.00 | 0.00 | 0.00 | 68 | 1002.5 |
| 20260509204103 | 87 | 314 | 5.0 | 6.0 | 0.00 | 0.00 | 0.00 | 69 | 1002.5 |
| 20260509204002 | 87 | 354 | 4.0 | 6.0 | 0.00 | 0.00 | 0.00 | 70 | 1002.5 |
| 20260509203903 | 87 | 340 | 4.0 | 6.0 | 0.00 | 0.00 | 0.00 | 69 | 1002.6 |
| 20260509203804 | 87 | 331 | 4.0 | 6.0 | 0.00 | 0.00 | 0.00 | 69 | 1002.5 |
| 20260509203703 | 87 | 28 | 2.0 | 5.0 | 0.00 | 0.00 | 0.00 | 69 | 1002.6 |
| 20260509203604 | 87 | 32 | 2.0 | 4.0 | 0.00 | 0.00 | 0.00 | 69 | 1002.7 |
| 20260509203503 | 87 | 25 | 2.0 | 4.0 | 0.00 | 0.00 | 0.00 | 68 | 1002.6 |
| 20260509203403 | 87 | 25 | 2.0 | 4.0 | 0.00 | 0.00 | 0.00 | 70 | 1002.6 |
| 20260509203303 | 87 | 23 | 3.0 | 4.0 | 0.00 | 0.00 | 0.00 | 68 | 1002.6 |
| 20260509203202 | 87 | 23 | 3.0 | 5.0 | 0.00 | 0.00 | 0.00 | 69 | 1002.6 |
| 20260509203102 | 87 | 23 | 2.0 | 6.0 | 0.00 | 0.00 | 0.00 | 68 | 1002.7 |
| 20260509203002 | 87 | 3 | 0.0 | 6.0 | 0.00 | 0.00 | 0.00 | 68 | 1002.7 |
| 20260509202902 | 87 | 350 | 0.0 | 6.0 | 0.00 | 0.00 | 0.00 | 68 | 1002.7 |
| 20260509202803 | 87 | 350 | 0.0 | 6.0 | 0.00 | 0.00 | 0.00 | 68 | 1002.6 |
| 20260509202703 | 87 | 350 | 0.0 | 6.0 | 0.00 | 0.00 | 0.00 | 69 | 1002.7 |
| 20260509202602 | 87 | 348 | 1.0 | 6.0 | 0.00 | 0.00 | 0.00 | 69 | 1002.7 |
| 20260509202503 | 87 | 348 | 2.0 | 6.0 | 0.00 | 0.00 | 0.00 | 70 | 1002.8 |
| 20260509202404 | 87 | 351 | 3.0 | 6.0 | 0.00 | 0.00 | 0.00 | 70 | 1002.7 |
| 20260509202306 | 87 | 341 | 4.0 | 6.0 | 0.00 | 0.00 | 0.00 | 71 | 1002.7 |
| 20260509202204 | 87 | 344 | 2.0 | 7.0 | 0.00 | 0.00 | 0.00 | 71 | 1002.7 |
| 20260509202103 | 86 | 357 | 2.0 | 9.0 | 0.00 | 0.00 | 0.00 | 72 | 1002.8 |
| 20260509202006 | 86 | 353 | 3.0 | 9.0 | 0.00 | 0.00 | 0.00 | 72 | 1002.7 |
| 20260509201902 | 86 | 337 | 3.0 | 9.0 | 0.00 | 0.00 | 0.00 | 72 | 1002.8 |
| 20260509201802 | 86 | 296 | 3.0 | 9.0 | 0.00 | 0.00 | 0.00 | 70 | 1002.7 |
| 20260509201703 | 86 | 327 | 4.0 | 9.0 | 0.00 | 0.00 | 0.00 | 70 | 1002.8 |
| 20260509201604 | 87 | 327 | 5.0 | 9.0 | 0.00 | 0.00 | 0.00 | 71 | 1002.7 |
| 20260509201503 | 87 | 336 | 4.0 | 9.0 | 0.00 | 0.00 | 0.00 | 70 | 1002.7 |
| 20260509201402 | 87 | 0 | 4.0 | 9.0 | 0.00 | 0.00 | 0.00 | 70 | 1002.8 |
| 20260509201303 | 87 | 0 | 5.0 | 9.0 | 0.00 | 0.00 | 0.00 | 70 | 1002.8 |
| 20260509201203 | 87 | 351 | 4.0 | 9.0 | 0.00 | 0.00 | 0.00 | 71 | 1002.8 |
| 20260509201102 | 87 | 6 | 3.0 | 9.0 | 0.00 | 0.00 | 0.00 | 70 | 1002.8 |
| 20260509201003 | 87 | 7 | 2.0 | 9.0 | 0.00 | 0.00 | 0.00 | 72 | 1002.9 |
| 20260509200904 | 87 | 4 | 3.0 | 9.0 | 0.00 | 0.00 | 0.00 | 72 | 1002.9 |
| 20260509200803 | 87 | 0 | 5.0 | 9.0 | 0.00 | 0.00 | 0.00 | 71 | 1002.9 |
| 20260509200704 | 87 | 344 | 5.0 | 9.0 | 0.00 | 0.00 | 0.00 | 71 | 1002.8 |
| 20260509200602 | 87 | 319 | 5.0 | 9.0 | 0.00 | 0.00 | 0.00 | 71 | 1002.8 |
| 20260509200501 | 86 | 271 | 4.0 | 9.0 | 0.00 | 0.00 | 0.00 | 71 | 1002.9 |
| 20260509200401 | 86 | 238 | 3.0 | 6.0 | 0.00 | 0.00 | 0.00 | 71 | 1002.9 |
| 20260509200302 | 87 | 289 | 4.0 | 6.0 | 0.00 | 0.00 | 0.00 | 71 | 1002.8 |
| 20260509200203 | 87 | 298 | 3.0 | 6.0 | 0.00 | 0.00 | 0.00 | 72 | 1002.9 |
| 20260509200104 | 86 | 285 | 3.0 | 6.0 | 0.00 | 0.00 | 0.00 | 72 | 1003.0 |
| 20260509200005 | 86 | 302 | 4.0 | 6.0 | 0.00 | 0.00 | 0.00 | 71 | 1002.9 |
| 20260509195902 | 86 | 302 | 4.0 | 6.0 | 0.00 | 0.00 | 0.00 | 71 | 1003.0 |
| 20260509195803 | 86 | 298 | 4.0 | 6.0 | 0.00 | 0.00 | 0.00 | 71 | 1003.0 |
| 20260509195702 | 86 | 292 | 4.0 | 6.0 | 0.00 | 0.00 | 0.00 | 72 | 1003.1 |
| 20260509195604 | 86 | 303 | 3.0 | 6.0 | 0.00 | 0.00 | 0.00 | 70 | 1003.1 |
| 20260509195505 | 86 | 310 | 1.0 | 6.0 | 0.00 | 0.00 | 0.00 | 71 | 1003.1 |
| 20260509195402 | 86 | 276 | 0.0 | 6.0 | 0.00 | 0.00 | 0.00 | 72 | 1003.0 |
| 20260509195306 | 86 | 278 | 4.0 | 6.0 | 0.00 | 0.00 | 0.00 | 73 | 1003.1 |
| 20260509195203 | 86 | 278 | 5.0 | 6.0 | 0.00 | 0.00 | 0.00 | 73 | 1003.1 |
| 20260509195103 | 86 | 281 | 5.0 | 6.0 | 0.00 | 0.00 | 0.00 | 71 | 1003.1 |
| 20260509195004 | 86 | 295 | 5.0 | 6.0 | 0.00 | 0.00 | 0.00 | 71 | 1003.0 |
| 20260509194902 | 86 | 299 | 5.0 | 6.0 | 0.00 | 0.00 | 0.00 | 71 | 1003.1 |
| 20260509194804 | 86 | 298 | 5.0 | 6.0 | 0.00 | 0.00 | 0.00 | 71 | 1003.0 |
| 20260509194704 | 86 | 312 | 5.0 | 6.0 | 0.00 | 0.00 | 0.00 | 72 | 1003.1 |
| 20260509194602 | 86 | 309 | 4.0 | 6.0 | 0.00 | 0.00 | 0.00 | 72 | 1003.1 |
| 20260509194504 | 86 | 321 | 3.0 | 6.0 | 0.00 | 0.00 | 0.00 | 72 | 1003.0 |
| 20260509194403 | 86 | 262 | 3.0 | 6.0 | 0.00 | 0.00 | 0.00 | 71 | 1003.1 |
| 20260509194305 | 86 | 261 | 4.0 | 6.0 | 0.00 | 0.00 | 0.00 | 71 | 1003.1 |
| 20260509194201 | 86 | 258 | 4.0 | 7.0 | 0.00 | 0.00 | 0.00 | 71 | 1003.1 |
| 20260509194103 | 86 | 290 | 4.0 | 7.0 | 0.00 | 0.00 | 0.00 | 71 | 1003.1 |
| 20260509194004 | 86 | 285 | 4.0 | 7.0 | 0.00 | 0.00 | 0.00 | 71 | 1003.1 |
| 20260509193904 | 86 | 279 | 4.0 | 7.0 | 0.00 | 0.00 | 0.00 | 71 | 1003.1 |
| 20260509193803 | 86 | 285 | 3.0 | 7.0 | 0.00 | 0.00 | 0.00 | 72 | 1003.1 |
| 20260509193702 | 86 | 358 | 2.0 | 7.0 | 0.00 | 0.00 | 0.00 | 71 | 1003.1 |
| 20260509193603 | 86 | 0 | 2.0 | 7.0 | 0.00 | 0.00 | 0.00 | 71 | 1003.0 |
| 20260509193502 | 86 | 0 | 4.0 | 7.0 | 0.00 | 0.00 | 0.00 | 71 | 1003.2 |
| 20260509193404 | 86 | 340 | 5.0 | 10.0 | 0.00 | 0.00 | 0.00 | 71 | 1003.2 |
| 20260509193304 | 86 | 317 | 6.0 | 10.0 | 0.00 | 0.00 | 0.00 | 71 | 1003.2 |
| 20260509193201 | 86 | 326 | 4.0 | 10.0 | 0.00 | 0.00 | 0.00 | 72 | 1003.1 |
| 20260509193103 | 86 | 262 | 4.0 | 10.0 | 0.00 | 0.00 | 0.00 | 72 | 1003.2 |
| 20260509193005 | 86 | 303 | 4.0 | 10.0 | 0.00 | 0.00 | 0.00 | 72 | 1003.2 |
| 20260509192902 | 86 | 285 | 4.0 | 10.0 | 0.00 | 0.00 | 0.00 | 71 | 1003.3 |
| 20260509192802 | 86 | 296 | 4.0 | 10.0 | 0.00 | 0.00 | 0.00 | 71 | 1003.3 |
| 20260509192658 | 86 | 283 | 5.0 | 10.0 | 0.00 | 0.00 | 0.00 | 71 | 1003.3 |
| 20260509192553 | 86 | 298 | 7.0 | 10.0 | 0.00 | 0.00 | 0.00 | 70 | 1003.4 |
| 20260509192441 | 86 | 285 | 5.0 | 10.0 | 0.00 | 0.00 | 0.00 | 72 | 1003.3 |
| 20260509192342 | 86 | 296 | 2.0 | 7.0 | 0.00 | 0.00 | 0.00 | 70 | 1003.3 |
| 20260509192239 | 86 | 295 | 3.0 | 7.0 | 0.00 | 0.00 | 0.00 | 70 | 1003.2 |
| 20260509192141 | 86 | 295 | 5.0 | 7.0 | 0.00 | 0.00 | 0.00 | 70 | 1003.3 |
| 20260509192040 | 86 | 293 | 4.0 | 7.0 | 0.00 | 0.00 | 0.00 | 71 | 1003.3 |
| 20260509191940 | 86 | 288 | 2.0 | 6.0 | 0.00 | 0.00 | 0.00 | 72 | 1003.3 |
| 20260509191841 | 86 | 0 | 2.0 | 6.0 | 0.00 | 0.00 | 0.00 | 72 | 1003.4 |
| 20260509191741 | 86 | 0 | 3.0 | 6.0 | 0.00 | 0.00 | 0.00 | 71 | 1003.3 |
| 20260509191639 | 86 | 353 | 2.0 | 6.0 | 0.00 | 0.00 | 0.00 | 71 | 1003.4 |
| 20260509191539 | 85 | 314 | 1.0 | 6.0 | 0.00 | 0.00 | 0.00 | 71 | 1003.4 |
| 20260509191439 | 85 | 314 | 2.0 | 6.0 | 0.00 | 0.00 | 0.00 | 71 | 1003.4 |
| 20260509191340 | 85 | 314 | 3.0 | 6.0 | 0.00 | 0.00 | 0.00 | 71 | 1003.4 |
| 20260509191239 | 86 | 329 | 4.0 | 6.0 | 0.00 | 0.00 | 0.00 | 72 | 1003.4 |
| 20260509191139 | 86 | 310 | 4.0 | 6.0 | 0.00 | 0.00 | 0.00 | 72 | 1003.4 |
| 20260509191039 | 86 | 305 | 3.0 | 5.0 | 0.00 | 0.00 | 0.00 | 72 | 1003.4 |
| 20260509190931 | 86 | 0 | 3.0 | 5.0 | 0.00 | 0.00 | 0.00 | 71 | 1003.4 |
| 20260509190832 | 86 | 281 | 3.0 | 5.0 | 0.00 | 0.00 | 0.00 | 70 | 1003.3 |
| 20260509190731 | 86 | 281 | 3.0 | 5.0 | 0.00 | 0.00 | 0.00 | 71 | 1003.3 |
| 20260509190631 | 86 | 269 | 4.0 | 5.0 | 0.00 | 0.00 | 0.00 | 71 | 1003.4 |
| 20260509190531 | 85 | 262 | 3.0 | 5.0 | 0.00 | 0.00 | 0.00 | 72 | 1003.5 |
| 20260509190433 | 85 | 295 | 2.0 | 5.0 | 0.00 | 0.00 | 0.00 | 72 | 1003.4 |
| 20260509190330 | 85 | 269 | 2.0 | 5.0 | 0.00 | 0.00 | 0.00 | 71 | 1003.4 |
| 20260509190231 | 85 | 283 | 4.0 | 5.0 | 0.00 | 0.00 | 0.00 | 73 | 1003.4 |
| 20260509190125 | 85 | 299 | 3.0 | 5.0 | 0.00 | 0.00 | 0.00 | 72 | 1003.5 |
| 20260509190025 | 85 | 39 | 1.0 | 5.0 | 0.00 | 0.00 | 0.00 | 74 | 1003.4 |
| 20260509185923 | 85 | 42 | 2.0 | 5.0 | 0.00 | 0.00 | 0.00 | 73 | 1003.4 |
| 20260509185814 | 84 | 42 | 3.0 | 5.0 | 0.00 | 0.00 | 0.00 | 73 | 1003.4 |
| 20260509185711 | 84 | 31 | 3.0 | 5.0 | 0.00 | 0.00 | 0.00 | 72 | 1003.4 |
| 20260509185610 | 85 | 8 | 3.0 | 4.0 | 0.00 | 0.00 | 0.00 | 72 | 1003.4 |
| 20260509185504 | 85 | 0 | 3.0 | 4.0 | 0.00 | 0.00 | 0.00 | 72 | 1003.5 |
| 20260509185403 | 85 | 337 | 3.0 | 5.0 | 0.00 | 0.00 | 0.00 | 72 | 1003.5 |
| 20260509185306 | 85 | 312 | 3.0 | 5.0 | 0.00 | 0.00 | 0.00 | 71 | 1003.4 |
| 20260509185203 | 85 | 102 | 2.0 | 5.0 | 0.00 | 0.00 | 0.00 | 71 | 1003.5 |
| 20260509185103 | 85 | 104 | 1.0 | 5.0 | 0.00 | 0.00 | 0.00 | 71 | 1003.4 |
| 20260509185002 | 85 | 104 | 0.0 | 5.0 | 0.00 | 0.00 | 0.00 | 71 | 1003.6 |
| 20260509184902 | 85 | 104 | 1.0 | 5.0 | 0.00 | 0.00 | 0.00 | 72 | 1003.5 |
| 20260509184804 | 85 | 104 | 1.0 | 5.0 | 0.00 | 0.00 | 0.00 | 72 | 1003.5 |
| 20260509184703 | 85 | 104 | 2.0 | 5.0 | 0.00 | 0.00 | 0.00 | 72 | 1003.5 |
| 20260509184603 | 85 | 104 | 3.0 | 5.0 | 0.00 | 0.00 | 0.00 | 72 | 1003.5 |
| 20260509184505 | 85 | 104 | 3.0 | 5.0 | 0.00 | 0.00 | 0.00 | 72 | 1003.4 |
| 20260509184403 | 85 | 106 | 2.0 | 5.0 | 0.00 | 0.00 | 0.00 | 70 | 1003.4 |
| 20260509184302 | 85 | 106 | 2.0 | 5.0 | 0.00 | 0.00 | 0.00 | 70 | 1003.5 |
| 20260509184202 | 85 | 106 | 3.0 | 5.0 | 0.00 | 0.00 | 0.00 | 70 | 1003.5 |
| 20260509184104 | 86 | 104 | 3.0 | 5.0 | 0.00 | 0.00 | 0.00 | 70 | 1003.6 |
| 20260509184004 | 86 | 102 | 2.0 | 5.0 | 0.00 | 0.00 | 0.00 | 71 | 1003.5 |
| 20260509183902 | 86 | 155 | 2.0 | 4.0 | 0.00 | 0.00 | 0.00 | 71 | 1003.6 |
| 20260509183802 | 86 | 157 | 1.0 | 4.0 | 0.00 | 0.00 | 0.00 | 71 | 1003.7 |
| 20260509183704 | 86 | 157 | 2.0 | 4.0 | 0.00 | 0.00 | 0.00 | 71 | 1003.7 |
| 20260509183603 | 86 | 157 | 2.0 | 4.0 | 0.00 | 0.00 | 0.00 | 71 | 1003.6 |
| 20260509183502 | 86 | 158 | 2.0 | 4.0 | 0.00 | 0.00 | 0.00 | 71 | 1003.8 |
| 20260509183403 | 86 | 158 | 1.0 | 4.0 | 0.00 | 0.00 | 0.00 | 71 | 1003.7 |
| 20260509183302 | 86 | 165 | 0.0 | 3.0 | 0.00 | 0.00 | 0.00 | 71 | 1003.7 |
| 20260509183202 | 86 | 165 | 1.0 | 3.0 | 0.00 | 0.00 | 0.00 | 72 | 1003.8 |
| 20260509183103 | 86 | 165 | 2.0 | 4.0 | 0.00 | 0.00 | 0.00 | 71 | 1003.7 |